Multibeam Report for MGL1408


Ship Name: Marcus G. Langseth
Chief Scientist: Shillington, Donna
Lamont-Doherty Earth Observatory
Source Organization: UNOLS R2R
Start Date: 2014-09-15
End Date: 2014-10-22


View ISO Metadata

Visit the full NCEI Bathymetry Viewer


Multibeam Bathymetry

Cruise Details

Project: Eastern North American Margin(ENAM) Community Seismic Experiment
Instrument: Kongsberg EM122

Data Quality

Number of Files: 1455
Number of Records: 1914003
BATHYMETRY DATA Quantity Percentage
Number of Beams 826637616 100%
Number of Good Beams 768685989 92.99%
Number of Zero Beams 1160 0.0%
Number of Flagged Beams 57950467 7.01%

Navigation Totals

Total Time: 706.8711 hours
Total Track Length: 5820.8444 km
Average Speed: 8.235 km/hr (4.4465 knots)

Cruise Bounds

Northern Extent: 36.491264
Southern Extent: 32.31293
Western Extent: -76.9686
Eastern Extent: -71.4256

Limits

Minimum Sonar Depth 1.5235 Maximum Sonar Depth 10.3795
Minimum Altitude 10.4598 Maximum Altitude 6125.7222
Minimum Depth 17.0196 Maximum Depth 6348.6509

File Information

Full Resolution Bathymetry as collected (raw): 1452

Files File Size Description
0000_20140917_180048_Langseth.all.mb58.gz 5.21MB Kongsberg multibeam vendor format
0000_20140922_063632_Langseth.all.mb58.gz 21.14MB Kongsberg multibeam vendor format
0000_20140922_213919_Langseth.all.mb58.gz 18.21MB Kongsberg multibeam vendor format
0000_20140925_062640_Langseth.all.mb58.gz 19.72MB Kongsberg multibeam vendor format
0000_20140929_051626_Langseth.all.mb58.gz 54.76MB Kongsberg multibeam vendor format
0000_20141006_165200_Langseth.all.mb58.gz 21.79MB Kongsberg multibeam vendor format
0000_20141010_040536_Langseth.all.mb58.gz 28.94MB Kongsberg multibeam vendor format
0000_20141011_161648_Langseth.all.mb58.gz 22.85MB Kongsberg multibeam vendor format
0001_20140917_184351_Langseth.all.mb58.gz 18.25MB Kongsberg multibeam vendor format
0001_20140922_070638_Langseth.all.mb58.gz 20.12MB Kongsberg multibeam vendor format
0001_20140922_220900_Langseth.all.mb58.gz 18.39MB Kongsberg multibeam vendor format
0001_20140925_065645_Langseth.all.mb58.gz 19.59MB Kongsberg multibeam vendor format
0001_20140929_054623_Langseth.all.mb58.gz 55.46MB Kongsberg multibeam vendor format
0001_20141006_172158_Langseth.all.mb58.gz 22.13MB Kongsberg multibeam vendor format
0001_20141010_043539_Langseth.all.mb58.gz 23.23MB Kongsberg multibeam vendor format
0001_20141011_164652_Langseth.all.mb58.gz 22.66MB Kongsberg multibeam vendor format
0002_20140917_191338_Langseth.all.mb58.gz 18.48MB Kongsberg multibeam vendor format
0002_20140922_073635_Langseth.all.mb58.gz 20.13MB Kongsberg multibeam vendor format
0002_20140922_223903_Langseth.all.mb58.gz 18.54MB Kongsberg multibeam vendor format
0002_20140925_072631_Langseth.all.mb58.gz 19.99MB Kongsberg multibeam vendor format
0002_20140929_061623_Langseth.all.mb58.gz 55.88MB Kongsberg multibeam vendor format
0002_20141006_175152_Langseth.all.mb58.gz 22.37MB Kongsberg multibeam vendor format
0002_20141010_050540_Langseth.all.mb58.gz 23.53MB Kongsberg multibeam vendor format
0002_20141011_171652_Langseth.all.mb58.gz 17.26MB Kongsberg multibeam vendor format
0003_20140917_194348_Langseth.all.mb58.gz 18.46MB Kongsberg multibeam vendor format
0003_20140922_080643_Langseth.all.mb58.gz 19.95MB Kongsberg multibeam vendor format
0003_20140922_230916_Langseth.all.mb58.gz 18.32MB Kongsberg multibeam vendor format
0003_20140925_075633_Langseth.all.mb58.gz 19.96MB Kongsberg multibeam vendor format
0003_20140929_064622_Langseth.all.mb58.gz 56.29MB Kongsberg multibeam vendor format
0003_20141006_182153_Langseth.all.mb58.gz 22.58MB Kongsberg multibeam vendor format
0003_20141010_053539_Langseth.all.mb58.gz 23.61MB Kongsberg multibeam vendor format
0003_20141011_174246_Langseth.all.mb58.gz 22.46MB Kongsberg multibeam vendor format
0004_20140917_201354_Langseth.all.mb58.gz 18.23MB Kongsberg multibeam vendor format
0004_20140922_083637_Langseth.all.mb58.gz 19.95MB Kongsberg multibeam vendor format
0004_20140922_233912_Langseth.all.mb58.gz 18.35MB Kongsberg multibeam vendor format
0004_20140925_082632_Langseth.all.mb58.gz 19.98MB Kongsberg multibeam vendor format
0004_20140929_071622_Langseth.all.mb58.gz 56.75MB Kongsberg multibeam vendor format
0004_20141006_185158_Langseth.all.mb58.gz 22.56MB Kongsberg multibeam vendor format
0004_20141010_060534_Langseth.all.mb58.gz 24.75MB Kongsberg multibeam vendor format
0004_20141011_181248_Langseth.all.mb58.gz 22.40MB Kongsberg multibeam vendor format
0005_20140917_204340_Langseth.all.mb58.gz 18.46MB Kongsberg multibeam vendor format
0005_20140922_090637_Langseth.all.mb58.gz 20.00MB Kongsberg multibeam vendor format
0005_20140923_000911_Langseth.all.mb58.gz 18.32MB Kongsberg multibeam vendor format
0005_20140925_085637_Langseth.all.mb58.gz 19.97MB Kongsberg multibeam vendor format
0005_20140929_074622_Langseth.all.mb58.gz 57.22MB Kongsberg multibeam vendor format
0005_20141006_192153_Langseth.all.mb58.gz 22.84MB Kongsberg multibeam vendor format
0005_20141010_063537_Langseth.all.mb58.gz 33.28MB Kongsberg multibeam vendor format
0005_20141011_184241_Langseth.all.mb58.gz 22.42MB Kongsberg multibeam vendor format
0006_20140917_211345_Langseth.all.mb58.gz 18.45MB Kongsberg multibeam vendor format
0006_20140922_093637_Langseth.all.mb58.gz 19.92MB Kongsberg multibeam vendor format
0006_20140923_003909_Langseth.all.mb58.gz 18.32MB Kongsberg multibeam vendor format
0006_20140925_092633_Langseth.all.mb58.gz 20.04MB Kongsberg multibeam vendor format
0006_20140929_081622_Langseth.all.mb58.gz 57.85MB Kongsberg multibeam vendor format
0006_20141006_195155_Langseth.all.mb58.gz 23.18MB Kongsberg multibeam vendor format
0006_20141010_070534_Langseth.all.mb58.gz 33.85MB Kongsberg multibeam vendor format
0006_20141011_191241_Langseth.all.mb58.gz 22.29MB Kongsberg multibeam vendor format
0007_20140917_214355_Langseth.all.mb58.gz 18.27MB Kongsberg multibeam vendor format
0007_20140922_100639_Langseth.all.mb58.gz 19.91MB Kongsberg multibeam vendor format
0007_20140923_010909_Langseth.all.mb58.gz 18.36MB Kongsberg multibeam vendor format
0007_20140925_095641_Langseth.all.mb58.gz 19.98MB Kongsberg multibeam vendor format
0007_20140929_084624_Langseth.all.mb58.gz 58.43MB Kongsberg multibeam vendor format
0007_20141006_202155_Langseth.all.mb58.gz 23.19MB Kongsberg multibeam vendor format
0007_20141010_073542_Langseth.all.mb58.gz 34.04MB Kongsberg multibeam vendor format
0007_20141011_194238_Langseth.all.mb58.gz 22.51MB Kongsberg multibeam vendor format
0008_20140917_221344_Langseth.all.mb58.gz 18.33MB Kongsberg multibeam vendor format
0008_20140922_103636_Langseth.all.mb58.gz 19.88MB Kongsberg multibeam vendor format
0008_20140923_013917_Langseth.all.mb58.gz 18.13MB Kongsberg multibeam vendor format
0008_20140925_102644_Langseth.all.mb58.gz 19.96MB Kongsberg multibeam vendor format
0008_20140929_091624_Langseth.all.mb58.gz 59.13MB Kongsberg multibeam vendor format
0008_20141006_205152_Langseth.all.mb58.gz 23.40MB Kongsberg multibeam vendor format
0008_20141010_080537_Langseth.all.mb58.gz 34.39MB Kongsberg multibeam vendor format
0008_20141011_201248_Langseth.all.mb58.gz 22.19MB Kongsberg multibeam vendor format
0009_20140917_224345_Langseth.all.mb58.gz 18.27MB Kongsberg multibeam vendor format
0009_20140922_110633_Langseth.all.mb58.gz 20.05MB Kongsberg multibeam vendor format
0009_20140923_020904_Langseth.all.mb58.gz 18.34MB Kongsberg multibeam vendor format
0009_20140925_105645_Langseth.all.mb58.gz 19.68MB Kongsberg multibeam vendor format
0009_20140929_094622_Langseth.all.mb58.gz 14.90MB Kongsberg multibeam vendor format
0009_20141006_212155_Langseth.all.mb58.gz 23.43MB Kongsberg multibeam vendor format
0009_20141010_083538_Langseth.all.mb58.gz 34.16MB Kongsberg multibeam vendor format
0009_20141011_204241_Langseth.all.mb58.gz 22.35MB Kongsberg multibeam vendor format
0010_20140917_231336_Langseth.all.mb58.gz 18.53MB Kongsberg multibeam vendor format
0010_20140922_113642_Langseth.all.mb58.gz 19.89MB Kongsberg multibeam vendor format
0010_20140923_023914_Langseth.all.mb58.gz 18.15MB Kongsberg multibeam vendor format
0010_20140925_112633_Langseth.all.mb58.gz 20.05MB Kongsberg multibeam vendor format
0010_20140929_095353_Langseth.all.mb58.gz 2.91MB Kongsberg multibeam vendor format
0010_20141006_215155_Langseth.all.mb58.gz 23.58MB Kongsberg multibeam vendor format
0010_20141010_090538_Langseth.all.mb58.gz 34.42MB Kongsberg multibeam vendor format
0010_20141011_211244_Langseth.all.mb58.gz 22.27MB Kongsberg multibeam vendor format
0011_20140917_234354_Langseth.all.mb58.gz 18.14MB Kongsberg multibeam vendor format
0011_20140922_120637_Langseth.all.mb58.gz 19.92MB Kongsberg multibeam vendor format
0011_20140923_030910_Langseth.all.mb58.gz 18.37MB Kongsberg multibeam vendor format
0011_20140925_115647_Langseth.all.mb58.gz 19.83MB Kongsberg multibeam vendor format
0011_20140929_095837_Langseth.all.mb58.gz 394.6KB Kongsberg multibeam vendor format
0011_20141006_222158_Langseth.all.mb58.gz 23.68MB Kongsberg multibeam vendor format
0011_20141010_093537_Langseth.all.mb58.gz 35.07MB Kongsberg multibeam vendor format
0011_20141011_214242_Langseth.all.mb58.gz 22.41MB Kongsberg multibeam vendor format
0012_20140918_001338_Langseth.all.mb58.gz 18.31MB Kongsberg multibeam vendor format
0012_20140922_123642_Langseth.all.mb58.gz 19.85MB Kongsberg multibeam vendor format
0012_20140923_033920_Langseth.all.mb58.gz 18.09MB Kongsberg multibeam vendor format
0012_20140925_122637_Langseth.all.mb58.gz 19.94MB Kongsberg multibeam vendor format
0012_20140929_095955_Langseth.all.mb58.gz 60.40MB Kongsberg multibeam vendor format
0012_20141006_225155_Langseth.all.mb58.gz 25.10MB Kongsberg multibeam vendor format
0012_20141010_100534_Langseth.all.mb58.gz 34.70MB Kongsberg multibeam vendor format
0012_20141011_221245_Langseth.all.mb58.gz 22.31MB Kongsberg multibeam vendor format
0013_20140918_004335_Langseth.all.mb58.gz 18.35MB Kongsberg multibeam vendor format
0013_20140922_130641_Langseth.all.mb58.gz 19.13MB Kongsberg multibeam vendor format
0013_20140923_040902_Langseth.all.mb58.gz 18.29MB Kongsberg multibeam vendor format
0013_20140925_125634_Langseth.all.mb58.gz 20.02MB Kongsberg multibeam vendor format
0013_20140929_102955_Langseth.all.mb58.gz 61.44MB Kongsberg multibeam vendor format
0013_20141006_232155_Langseth.all.mb58.gz 33.12MB Kongsberg multibeam vendor format
0013_20141010_103541_Langseth.all.mb58.gz 34.79MB Kongsberg multibeam vendor format
0013_20141011_224239_Langseth.all.mb58.gz 22.26MB Kongsberg multibeam vendor format
0014_20140918_011338_Langseth.all.mb58.gz 18.34MB Kongsberg multibeam vendor format
0014_20140922_133650_Langseth.all.mb58.gz 18.90MB Kongsberg multibeam vendor format
0014_20140923_043901_Langseth.all.mb58.gz 18.53MB Kongsberg multibeam vendor format
0014_20140925_132637_Langseth.all.mb58.gz 20.04MB Kongsberg multibeam vendor format
0014_20140929_105956_Langseth.all.mb58.gz 62.46MB Kongsberg multibeam vendor format
0014_20141006_235155_Langseth.all.mb58.gz 33.17MB Kongsberg multibeam vendor format
0014_20141010_110541_Langseth.all.mb58.gz 34.75MB Kongsberg multibeam vendor format
0014_20141011_231238_Langseth.all.mb58.gz 22.36MB Kongsberg multibeam vendor format
0015_20140918_014335_Langseth.all.mb58.gz 18.38MB Kongsberg multibeam vendor format
0015_20140922_140651_Langseth.all.mb58.gz 18.71MB Kongsberg multibeam vendor format
0015_20140923_050916_Langseth.all.mb58.gz 18.29MB Kongsberg multibeam vendor format
0015_20140925_135639_Langseth.all.mb58.gz 19.91MB Kongsberg multibeam vendor format
0015_20140929_112956_Langseth.all.mb58.gz 63.62MB Kongsberg multibeam vendor format
0015_20141007_002158_Langseth.all.mb58.gz 33.43MB Kongsberg multibeam vendor format
0015_20141010_113536_Langseth.all.mb58.gz 34.51MB Kongsberg multibeam vendor format
0015_20141011_234248_Langseth.all.mb58.gz 22.08MB Kongsberg multibeam vendor format
0016_20140918_021341_Langseth.all.mb58.gz 18.37MB Kongsberg multibeam vendor format
0016_20140922_143653_Langseth.all.mb58.gz 18.50MB Kongsberg multibeam vendor format
0016_20140923_053907_Langseth.all.mb58.gz 18.44MB Kongsberg multibeam vendor format
0016_20140925_142631_Langseth.all.mb58.gz 19.95MB Kongsberg multibeam vendor format
0016_20140929_115955_Langseth.all.mb58.gz 65.03MB Kongsberg multibeam vendor format
0016_20141007_005158_Langseth.all.mb58.gz 34.33MB Kongsberg multibeam vendor format
0016_20141010_120537_Langseth.all.mb58.gz 35.45MB Kongsberg multibeam vendor format
0016_20141012_001241_Langseth.all.mb58.gz 22.02MB Kongsberg multibeam vendor format
0017_20140918_024352_Langseth.all.mb58.gz 18.16MB Kongsberg multibeam vendor format
0017_20140922_150639_Langseth.all.mb58.gz 18.55MB Kongsberg multibeam vendor format
0017_20140923_060913_Langseth.all.mb58.gz 18.38MB Kongsberg multibeam vendor format
0017_20140925_145631_Langseth.all.mb58.gz 20.01MB Kongsberg multibeam vendor format
0017_20140929_122955_Langseth.all.mb58.gz 66.59MB Kongsberg multibeam vendor format
0017_20141007_012155_Langseth.all.mb58.gz 34.51MB Kongsberg multibeam vendor format
0017_20141010_123535_Langseth.all.mb58.gz 35.42MB Kongsberg multibeam vendor format
0017_20141012_004245_Langseth.all.mb58.gz 21.58MB Kongsberg multibeam vendor format
0018_20140918_031342_Langseth.all.mb58.gz 18.23MB Kongsberg multibeam vendor format
0018_20140922_153633_Langseth.all.mb58.gz 18.66MB Kongsberg multibeam vendor format
0018_20140923_063916_Langseth.all.mb58.gz 18.38MB Kongsberg multibeam vendor format
0018_20140925_152636_Langseth.all.mb58.gz 19.94MB Kongsberg multibeam vendor format
0018_20140929_125955_Langseth.all.mb58.gz 68.48MB Kongsberg multibeam vendor format
0018_20141007_015156_Langseth.all.mb58.gz 36.36MB Kongsberg multibeam vendor format
0018_20141010_130534_Langseth.all.mb58.gz 36.86MB Kongsberg multibeam vendor format
0018_20141012_011245_Langseth.all.mb58.gz 21.29MB Kongsberg multibeam vendor format
0019_20140918_034341_Langseth.all.mb58.gz 18.21MB Kongsberg multibeam vendor format
0019_20140922_160634_Langseth.all.mb58.gz 18.75MB Kongsberg multibeam vendor format
0019_20140923_070915_Langseth.all.mb58.gz 18.27MB Kongsberg multibeam vendor format
0019_20140925_155638_Langseth.all.mb58.gz 19.94MB Kongsberg multibeam vendor format
0019_20140929_132955_Langseth.all.mb58.gz 70.88MB Kongsberg multibeam vendor format
0019_20141007_022158_Langseth.all.mb58.gz 39.73MB Kongsberg multibeam vendor format
0019_20141010_133535_Langseth.all.mb58.gz 37.25MB Kongsberg multibeam vendor format
0019_20141012_014241_Langseth.all.mb58.gz 21.59MB Kongsberg multibeam vendor format
0020_20140918_041338_Langseth.all.mb58.gz 18.25MB Kongsberg multibeam vendor format
0020_20140922_163645_Langseth.all.mb58.gz 18.63MB Kongsberg multibeam vendor format
0020_20140923_073901_Langseth.all.mb58.gz 18.42MB Kongsberg multibeam vendor format
0020_20140925_162637_Langseth.all.mb58.gz 19.96MB Kongsberg multibeam vendor format
0020_20140929_135955_Langseth.all.mb58.gz 71.98MB Kongsberg multibeam vendor format
0020_20141007_025156_Langseth.all.mb58.gz 42.98MB Kongsberg multibeam vendor format
0020_20141010_140534_Langseth.all.mb58.gz 40.39MB Kongsberg multibeam vendor format
0020_20141012_021238_Langseth.all.mb58.gz 22.09MB Kongsberg multibeam vendor format
0021_20140918_044341_Langseth.all.mb58.gz 18.23MB Kongsberg multibeam vendor format
0021_20140922_170647_Langseth.all.mb58.gz 18.42MB Kongsberg multibeam vendor format
0021_20140923_080901_Langseth.all.mb58.gz 18.58MB Kongsberg multibeam vendor format
0021_20140925_165646_Langseth.all.mb58.gz 19.62MB Kongsberg multibeam vendor format
0021_20140929_142956_Langseth.all.mb58.gz 70.98MB Kongsberg multibeam vendor format
0021_20141007_032154_Langseth.all.mb58.gz 43.87MB Kongsberg multibeam vendor format
0021_20141010_143538_Langseth.all.mb58.gz 36.81MB Kongsberg multibeam vendor format
0021_20141012_024239_Langseth.all.mb58.gz 22.13MB Kongsberg multibeam vendor format
0022_20140918_051341_Langseth.all.mb58.gz 18.35MB Kongsberg multibeam vendor format
0022_20140922_173641_Langseth.all.mb58.gz 18.41MB Kongsberg multibeam vendor format
0022_20140923_083916_Langseth.all.mb58.gz 18.30MB Kongsberg multibeam vendor format
0022_20140925_172637_Langseth.all.mb58.gz 19.71MB Kongsberg multibeam vendor format
0022_20140929_145955_Langseth.all.mb58.gz 68.32MB Kongsberg multibeam vendor format
0022_20141007_035157_Langseth.all.mb58.gz 46.71MB Kongsberg multibeam vendor format
0022_20141010_150536_Langseth.all.mb58.gz 36.02MB Kongsberg multibeam vendor format
0022_20141012_031239_Langseth.all.mb58.gz 22.17MB Kongsberg multibeam vendor format
0023_20140918_054344_Langseth.all.mb58.gz 18.36MB Kongsberg multibeam vendor format
0023_20140922_180637_Langseth.all.mb58.gz 18.52MB Kongsberg multibeam vendor format
0023_20140923_090905_Langseth.all.mb58.gz 18.48MB Kongsberg multibeam vendor format
0023_20140925_175642_Langseth.all.mb58.gz 19.76MB Kongsberg multibeam vendor format
0023_20140929_152955_Langseth.all.mb58.gz 64.96MB Kongsberg multibeam vendor format
0023_20141007_042152_Langseth.all.mb58.gz 90.50MB Kongsberg multibeam vendor format
0023_20141010_153545_Langseth.all.mb58.gz 35.53MB Kongsberg multibeam vendor format
0023_20141012_034239_Langseth.all.mb58.gz 22.03MB Kongsberg multibeam vendor format
0024_20140918_061349_Langseth.all.mb58.gz 18.15MB Kongsberg multibeam vendor format
0024_20140922_183644_Langseth.all.mb58.gz 18.37MB Kongsberg multibeam vendor format
0024_20140923_093913_Langseth.all.mb58.gz 18.44MB Kongsberg multibeam vendor format
0024_20140925_182654_Langseth.all.mb58.gz 19.54MB Kongsberg multibeam vendor format
0024_20140929_155956_Langseth.all.mb58.gz 62.36MB Kongsberg multibeam vendor format
0024_20141007_045152_Langseth.all.mb58.gz 168.05MB Kongsberg multibeam vendor format
0024_20141010_160539_Langseth.all.mb58.gz 34.53MB Kongsberg multibeam vendor format
0024_20141012_041241_Langseth.all.mb58.gz 22.16MB Kongsberg multibeam vendor format
0025_20140918_064335_Langseth.all.mb58.gz 18.35MB Kongsberg multibeam vendor format
0025_20140922_190639_Langseth.all.mb58.gz 18.47MB Kongsberg multibeam vendor format
0025_20140923_100911_Langseth.all.mb58.gz 18.43MB Kongsberg multibeam vendor format
0025_20140925_185642_Langseth.all.mb58.gz 19.61MB Kongsberg multibeam vendor format
0025_20140929_162955_Langseth.all.mb58.gz 60.33MB Kongsberg multibeam vendor format
0025_20141007_052152_Langseth.all.mb58.gz 97.22MB Kongsberg multibeam vendor format
0025_20141010_163541_Langseth.all.mb58.gz 35.78MB Kongsberg multibeam vendor format
0025_20141012_044246_Langseth.all.mb58.gz 22.03MB Kongsberg multibeam vendor format
0026_20140918_071336_Langseth.all.mb58.gz 18.56MB Kongsberg multibeam vendor format
0026_20140922_193644_Langseth.all.mb58.gz 18.45MB Kongsberg multibeam vendor format
0026_20140923_103909_Langseth.all.mb58.gz 18.59MB Kongsberg multibeam vendor format
0026_20140925_192639_Langseth.all.mb58.gz 19.64MB Kongsberg multibeam vendor format
0026_20140929_165954_Langseth.all.mb58.gz 58.43MB Kongsberg multibeam vendor format
0026_20141007_053917_Langseth.all.mb58.gz 158.32MB Kongsberg multibeam vendor format
0026_20141010_170539_Langseth.all.mb58.gz 38.75MB Kongsberg multibeam vendor format
0026_20141012_051240_Langseth.all.mb58.gz 22.04MB Kongsberg multibeam vendor format
0027_20140918_074355_Langseth.all.mb58.gz 18.31MB Kongsberg multibeam vendor format
0027_20140922_200647_Langseth.all.mb58.gz 17.50MB Kongsberg multibeam vendor format
0027_20140923_110908_Langseth.all.mb58.gz 18.61MB Kongsberg multibeam vendor format
0027_20140925_195639_Langseth.all.mb58.gz 19.66MB Kongsberg multibeam vendor format
0027_20140929_172957_Langseth.all.mb58.gz 56.81MB Kongsberg multibeam vendor format
0027_20141007_060918_Langseth.all.mb58.gz 16.65MB Kongsberg multibeam vendor format
0027_20141010_173541_Langseth.all.mb58.gz 34.97MB Kongsberg multibeam vendor format
0027_20141012_054241_Langseth.all.mb58.gz 11.86MB Kongsberg multibeam vendor format
0028_20140918_081347_Langseth.all.mb58.gz 18.33MB Kongsberg multibeam vendor format
0028_20140922_203544_Langseth.all.mb58.gz 13.28MB Kongsberg multibeam vendor format
0028_20140923_113906_Langseth.all.mb58.gz 18.78MB Kongsberg multibeam vendor format
0028_20140925_202641_Langseth.all.mb58.gz 19.54MB Kongsberg multibeam vendor format
0028_20140929_175955_Langseth.all.mb58.gz 55.36MB Kongsberg multibeam vendor format
0028_20141007_061732_Langseth.all.mb58.gz 55.24MB Kongsberg multibeam vendor format
0028_20141010_180538_Langseth.all.mb58.gz 36.06MB Kongsberg multibeam vendor format
0028_20141012_060752_Langseth.all.mb58.gz 21.77MB Kongsberg multibeam vendor format
0029_20140918_084343_Langseth.all.mb58.gz 18.53MB Kongsberg multibeam vendor format
0029_20140922_205750_Langseth.all.mb58.gz 7.25MB Kongsberg multibeam vendor format
0029_20140923_120918_Langseth.all.mb58.gz 18.48MB Kongsberg multibeam vendor format
0029_20140925_205634_Langseth.all.mb58.gz 19.63MB Kongsberg multibeam vendor format
0029_20140929_182956_Langseth.all.mb58.gz 54.36MB Kongsberg multibeam vendor format
0029_20141007_064736_Langseth.all.mb58.gz 45.34MB Kongsberg multibeam vendor format
0029_20141010_183534_Langseth.all.mb58.gz 35.78MB Kongsberg multibeam vendor format
0029_20141012_063741_Langseth.all.mb58.gz 21.75MB Kongsberg multibeam vendor format
0030_20140918_091355_Langseth.all.mb58.gz 18.29MB Kongsberg multibeam vendor format
0030_20140922_210946_Langseth.all.mb58.gz 15.35MB Kongsberg multibeam vendor format
0030_20140923_123910_Langseth.all.mb58.gz 18.56MB Kongsberg multibeam vendor format
0030_20140925_212636_Langseth.all.mb58.gz 19.56MB Kongsberg multibeam vendor format
0030_20140929_185955_Langseth.all.mb58.gz 22.05MB Kongsberg multibeam vendor format
0030_20141007_071736_Langseth.all.mb58.gz 41.33MB Kongsberg multibeam vendor format
0030_20141010_190537_Langseth.all.mb58.gz 34.43MB Kongsberg multibeam vendor format
0030_20141012_070750_Langseth.all.mb58.gz 21.55MB Kongsberg multibeam vendor format
0031_20140918_094342_Langseth.all.mb58.gz 18.40MB Kongsberg multibeam vendor format
0031_20140923_130905_Langseth.all.mb58.gz 18.75MB Kongsberg multibeam vendor format
0031_20140925_215633_Langseth.all.mb58.gz 19.63MB Kongsberg multibeam vendor format
0031_20140929_192228_Langseth.all.mb58.gz 45.39MB Kongsberg multibeam vendor format
0031_20141007_074734_Langseth.all.mb58.gz 39.61MB Kongsberg multibeam vendor format
0031_20141010_193535_Langseth.all.mb58.gz 34.72MB Kongsberg multibeam vendor format
0031_20141012_073748_Langseth.all.mb58.gz 21.49MB Kongsberg multibeam vendor format
0032_20140918_101340_Langseth.all.mb58.gz 18.38MB Kongsberg multibeam vendor format
0032_20140923_133915_Langseth.all.mb58.gz 18.68MB Kongsberg multibeam vendor format
0032_20140925_222637_Langseth.all.mb58.gz 19.63MB Kongsberg multibeam vendor format
0032_20140929_195221_Langseth.all.mb58.gz 42.96MB Kongsberg multibeam vendor format
0032_20141007_081737_Langseth.all.mb58.gz 39.80MB Kongsberg multibeam vendor format
0032_20141010_200538_Langseth.all.mb58.gz 35.10MB Kongsberg multibeam vendor format
0032_20141012_080746_Langseth.all.mb58.gz 21.95MB Kongsberg multibeam vendor format
0033_20140918_104336_Langseth.all.mb58.gz 18.54MB Kongsberg multibeam vendor format
0033_20140923_140918_Langseth.all.mb58.gz 18.56MB Kongsberg multibeam vendor format
0033_20140925_225646_Langseth.all.mb58.gz 19.51MB Kongsberg multibeam vendor format
0033_20140929_202225_Langseth.all.mb58.gz 39.23MB Kongsberg multibeam vendor format
0033_20141007_084732_Langseth.all.mb58.gz 38.43MB Kongsberg multibeam vendor format
0033_20141010_203541_Langseth.all.mb58.gz 38.41MB Kongsberg multibeam vendor format
0033_20141012_083745_Langseth.all.mb58.gz 21.96MB Kongsberg multibeam vendor format
0034_20140918_111348_Langseth.all.mb58.gz 18.49MB Kongsberg multibeam vendor format
0034_20140923_143909_Langseth.all.mb58.gz 18.58MB Kongsberg multibeam vendor format
0034_20140925_232640_Langseth.all.mb58.gz 19.48MB Kongsberg multibeam vendor format
0034_20140929_205222_Langseth.all.mb58.gz 34.33MB Kongsberg multibeam vendor format
0034_20141007_091736_Langseth.all.mb58.gz 35.69MB Kongsberg multibeam vendor format
0034_20141010_210536_Langseth.all.mb58.gz 41.36MB Kongsberg multibeam vendor format
0034_20141012_090750_Langseth.all.mb58.gz 21.80MB Kongsberg multibeam vendor format
0035_20140918_114354_Langseth.all.mb58.gz 18.24MB Kongsberg multibeam vendor format
0035_20140923_150902_Langseth.all.mb58.gz 18.80MB Kongsberg multibeam vendor format
0035_20140925_235645_Langseth.all.mb58.gz 19.48MB Kongsberg multibeam vendor format
0035_20140929_212228_Langseth.all.mb58.gz 26.10MB Kongsberg multibeam vendor format
0035_20141007_094739_Langseth.all.mb58.gz 38.45MB Kongsberg multibeam vendor format
0035_20141010_213534_Langseth.all.mb58.gz 39.68MB Kongsberg multibeam vendor format
0035_20141012_093745_Langseth.all.mb58.gz 21.76MB Kongsberg multibeam vendor format
0036_20140918_121335_Langseth.all.mb58.gz 18.62MB Kongsberg multibeam vendor format
0036_20140923_153916_Langseth.all.mb58.gz 18.63MB Kongsberg multibeam vendor format
0036_20140926_002641_Langseth.all.mb58.gz 19.51MB Kongsberg multibeam vendor format
0036_20140929_215222_Langseth.all.mb58.gz 23.07MB Kongsberg multibeam vendor format
0036_20141007_101738_Langseth.all.mb58.gz 39.76MB Kongsberg multibeam vendor format
0036_20141010_220536_Langseth.all.mb58.gz 40.19MB Kongsberg multibeam vendor format
0036_20141012_100749_Langseth.all.mb58.gz 21.40MB Kongsberg multibeam vendor format
0037_20140918_124353_Langseth.all.mb58.gz 18.36MB Kongsberg multibeam vendor format
0037_20140923_160911_Langseth.all.mb58.gz 18.60MB Kongsberg multibeam vendor format
0037_20140926_005636_Langseth.all.mb58.gz 19.52MB Kongsberg multibeam vendor format
0037_20140929_222221_Langseth.all.mb58.gz 23.19MB Kongsberg multibeam vendor format
0037_20141007_104733_Langseth.all.mb58.gz 41.36MB Kongsberg multibeam vendor format
0037_20141010_223540_Langseth.all.mb58.gz 40.43MB Kongsberg multibeam vendor format
0037_20141012_103746_Langseth.all.mb58.gz 21.26MB Kongsberg multibeam vendor format
0038_20140918_131344_Langseth.all.mb58.gz 18.52MB Kongsberg multibeam vendor format
0038_20140923_163903_Langseth.all.mb58.gz 18.68MB Kongsberg multibeam vendor format
0038_20140926_012634_Langseth.all.mb58.gz 19.48MB Kongsberg multibeam vendor format
0038_20140929_225225_Langseth.all.mb58.gz 23.09MB Kongsberg multibeam vendor format
0038_20141007_111733_Langseth.all.mb58.gz 42.29MB Kongsberg multibeam vendor format
0038_20141010_230537_Langseth.all.mb58.gz 39.35MB Kongsberg multibeam vendor format
0038_20141012_110748_Langseth.all.mb58.gz 21.42MB Kongsberg multibeam vendor format
0039_20140918_134351_Langseth.all.mb58.gz 18.44MB Kongsberg multibeam vendor format
0039_20140923_170907_Langseth.all.mb58.gz 18.67MB Kongsberg multibeam vendor format
0039_20140926_015638_Langseth.all.mb58.gz 19.47MB Kongsberg multibeam vendor format
0039_20140929_232228_Langseth.all.mb58.gz 22.98MB Kongsberg multibeam vendor format
0039_20141007_114735_Langseth.all.mb58.gz 43.81MB Kongsberg multibeam vendor format
0039_20141010_233534_Langseth.all.mb58.gz 37.94MB Kongsberg multibeam vendor format
0039_20141012_113751_Langseth.all.mb58.gz 21.16MB Kongsberg multibeam vendor format
0040_20140918_141348_Langseth.all.mb58.gz 18.44MB Kongsberg multibeam vendor format
0040_20140923_173914_Langseth.all.mb58.gz 18.51MB Kongsberg multibeam vendor format
0040_20140926_022641_Langseth.all.mb58.gz 19.51MB Kongsberg multibeam vendor format
0040_20140929_235227_Langseth.all.mb58.gz 22.78MB Kongsberg multibeam vendor format
0040_20141007_121737_Langseth.all.mb58.gz 44.91MB Kongsberg multibeam vendor format
0040_20141011_000537_Langseth.all.mb58.gz 35.09MB Kongsberg multibeam vendor format
0040_20141012_120742_Langseth.all.mb58.gz 21.15MB Kongsberg multibeam vendor format
0041_20140918_144337_Langseth.all.mb58.gz 18.65MB Kongsberg multibeam vendor format
0041_20140923_180903_Langseth.all.mb58.gz 18.72MB Kongsberg multibeam vendor format
0041_20140926_025647_Langseth.all.mb58.gz 19.44MB Kongsberg multibeam vendor format
0041_20140930_002224_Langseth.all.mb58.gz 22.90MB Kongsberg multibeam vendor format
0041_20141007_124734_Langseth.all.mb58.gz 45.04MB Kongsberg multibeam vendor format
0041_20141011_003536_Langseth.all.mb58.gz 34.74MB Kongsberg multibeam vendor format
0041_20141012_123751_Langseth.all.mb58.gz 20.86MB Kongsberg multibeam vendor format
0042_20140918_151347_Langseth.all.mb58.gz 18.62MB Kongsberg multibeam vendor format
0042_20140923_183911_Langseth.all.mb58.gz 18.63MB Kongsberg multibeam vendor format
0042_20140926_032636_Langseth.all.mb58.gz 19.51MB Kongsberg multibeam vendor format
0042_20140930_005226_Langseth.all.mb58.gz 22.76MB Kongsberg multibeam vendor format
0042_20141007_131736_Langseth.all.mb58.gz 44.49MB Kongsberg multibeam vendor format
0042_20141011_010540_Langseth.all.mb58.gz 34.36MB Kongsberg multibeam vendor format
0042_20141012_130748_Langseth.all.mb58.gz 20.84MB Kongsberg multibeam vendor format
0043_20140918_154347_Langseth.all.mb58.gz 18.69MB Kongsberg multibeam vendor format
0043_20140923_190911_Langseth.all.mb58.gz 18.65MB Kongsberg multibeam vendor format
0043_20140926_035637_Langseth.all.mb58.gz 19.45MB Kongsberg multibeam vendor format
0043_20140930_012224_Langseth.all.mb58.gz 22.63MB Kongsberg multibeam vendor format
0043_20141007_134733_Langseth.all.mb58.gz 42.34MB Kongsberg multibeam vendor format
0043_20141011_013547_Langseth.all.mb58.gz 33.86MB Kongsberg multibeam vendor format
0043_20141012_133747_Langseth.all.mb58.gz 21.37MB Kongsberg multibeam vendor format
0044_20140918_161351_Langseth.all.mb58.gz 18.58MB Kongsberg multibeam vendor format
0044_20140923_193912_Langseth.all.mb58.gz 18.62MB Kongsberg multibeam vendor format
0044_20140926_042638_Langseth.all.mb58.gz 19.50MB Kongsberg multibeam vendor format
0044_20140930_015222_Langseth.all.mb58.gz 22.50MB Kongsberg multibeam vendor format
0044_20141007_141732_Langseth.all.mb58.gz 41.09MB Kongsberg multibeam vendor format
0044_20141011_020536_Langseth.all.mb58.gz 34.34MB Kongsberg multibeam vendor format
0044_20141012_140750_Langseth.all.mb58.gz 21.21MB Kongsberg multibeam vendor format
0045_20140918_164342_Langseth.all.mb58.gz 18.65MB Kongsberg multibeam vendor format
0045_20140923_200914_Langseth.all.mb58.gz 18.63MB Kongsberg multibeam vendor format
0045_20140926_045645_Langseth.all.mb58.gz 19.24MB Kongsberg multibeam vendor format
0045_20140930_022222_Langseth.all.mb58.gz 22.43MB Kongsberg multibeam vendor format
0045_20141007_144738_Langseth.all.mb58.gz 40.18MB Kongsberg multibeam vendor format
0045_20141011_023542_Langseth.all.mb58.gz 34.34MB Kongsberg multibeam vendor format
0045_20141012_143747_Langseth.all.mb58.gz 21.00MB Kongsberg multibeam vendor format
0046_20140918_171337_Langseth.all.mb58.gz 18.77MB Kongsberg multibeam vendor format
0046_20140923_203909_Langseth.all.mb58.gz 18.61MB Kongsberg multibeam vendor format
0046_20140926_052632_Langseth.all.mb58.gz 19.45MB Kongsberg multibeam vendor format
0046_20140930_025226_Langseth.all.mb58.gz 22.54MB Kongsberg multibeam vendor format
0046_20141007_151733_Langseth.all.mb58.gz 40.71MB Kongsberg multibeam vendor format
0046_20141011_030538_Langseth.all.mb58.gz 33.41MB Kongsberg multibeam vendor format
0046_20141012_150741_Langseth.all.mb58.gz 21.34MB Kongsberg multibeam vendor format
0047_20140918_174343_Langseth.all.mb58.gz 18.90MB Kongsberg multibeam vendor format
0047_20140923_210902_Langseth.all.mb58.gz 18.71MB Kongsberg multibeam vendor format
0047_20140926_055641_Langseth.all.mb58.gz 19.28MB Kongsberg multibeam vendor format
0047_20140930_032223_Langseth.all.mb58.gz 22.71MB Kongsberg multibeam vendor format
0047_20141007_154735_Langseth.all.mb58.gz 40.21MB Kongsberg multibeam vendor format
0047_20141011_033541_Langseth.all.mb58.gz 33.53MB Kongsberg multibeam vendor format
0047_20141012_153750_Langseth.all.mb58.gz 21.15MB Kongsberg multibeam vendor format
0048_20140918_181355_Langseth.all.mb58.gz 18.82MB Kongsberg multibeam vendor format
0048_20140923_213905_Langseth.all.mb58.gz 18.68MB Kongsberg multibeam vendor format
0048_20140926_062639_Langseth.all.mb58.gz 19.31MB Kongsberg multibeam vendor format
0048_20140930_035223_Langseth.all.mb58.gz 22.78MB Kongsberg multibeam vendor format
0048_20141007_161735_Langseth.all.mb58.gz 44.40MB Kongsberg multibeam vendor format
0048_20141011_040537_Langseth.all.mb58.gz 33.60MB Kongsberg multibeam vendor format
0048_20141012_160747_Langseth.all.mb58.gz 20.89MB Kongsberg multibeam vendor format
0049_20140918_184346_Langseth.all.mb58.gz 18.90MB Kongsberg multibeam vendor format
0049_20140923_220903_Langseth.all.mb58.gz 18.89MB Kongsberg multibeam vendor format
0049_20140926_065642_Langseth.all.mb58.gz 19.37MB Kongsberg multibeam vendor format
0049_20140930_042225_Langseth.all.mb58.gz 22.86MB Kongsberg multibeam vendor format
0049_20141007_164732_Langseth.all.mb58.gz 41.45MB Kongsberg multibeam vendor format
0049_20141011_043539_Langseth.all.mb58.gz 33.57MB Kongsberg multibeam vendor format
0049_20141012_163745_Langseth.all.mb58.gz 20.85MB Kongsberg multibeam vendor format
0050_20140918_191341_Langseth.all.mb58.gz 19.10MB Kongsberg multibeam vendor format
0050_20140923_223919_Langseth.all.mb58.gz 18.66MB Kongsberg multibeam vendor format
0050_20140926_072650_Langseth.all.mb58.gz 19.19MB Kongsberg multibeam vendor format
0050_20140930_045230_Langseth.all.mb58.gz 22.71MB Kongsberg multibeam vendor format
0050_20141007_171734_Langseth.all.mb58.gz 46.37MB Kongsberg multibeam vendor format
0050_20141011_050540_Langseth.all.mb58.gz 33.91MB Kongsberg multibeam vendor format
0050_20141012_170751_Langseth.all.mb58.gz 20.72MB Kongsberg multibeam vendor format
0051_20140918_194353_Langseth.all.mb58.gz 18.87MB Kongsberg multibeam vendor format
0051_20140923_230907_Langseth.all.mb58.gz 18.88MB Kongsberg multibeam vendor format
0051_20140926_075644_Langseth.all.mb58.gz 19.21MB Kongsberg multibeam vendor format
0051_20140930_052222_Langseth.all.mb58.gz 22.85MB Kongsberg multibeam vendor format
0051_20141007_174734_Langseth.all.mb58.gz 46.78MB Kongsberg multibeam vendor format
0051_20141011_053537_Langseth.all.mb58.gz 33.53MB Kongsberg multibeam vendor format
0051_20141012_173750_Langseth.all.mb58.gz 20.81MB Kongsberg multibeam vendor format
0052_20140918_201343_Langseth.all.mb58.gz 19.00MB Kongsberg multibeam vendor format
0052_20140923_233912_Langseth.all.mb58.gz 18.80MB Kongsberg multibeam vendor format
0052_20140926_082638_Langseth.all.mb58.gz 19.38MB Kongsberg multibeam vendor format
0052_20140930_055229_Langseth.all.mb58.gz 22.68MB Kongsberg multibeam vendor format
0052_20141007_181732_Langseth.all.mb58.gz 92.92MB Kongsberg multibeam vendor format
0052_20141011_060539_Langseth.all.mb58.gz 33.26MB Kongsberg multibeam vendor format
0052_20141012_180750_Langseth.all.mb58.gz 20.98MB Kongsberg multibeam vendor format
0053_20140918_204344_Langseth.all.mb58.gz 18.97MB Kongsberg multibeam vendor format
0053_20140924_000906_Langseth.all.mb58.gz 18.80MB Kongsberg multibeam vendor format
0053_20140926_085647_Langseth.all.mb58.gz 19.19MB Kongsberg multibeam vendor format
0053_20140930_062228_Langseth.all.mb58.gz 22.49MB Kongsberg multibeam vendor format
0053_20141007_184732_Langseth.all.mb58.gz 167.98MB Kongsberg multibeam vendor format
0053_20141011_063536_Langseth.all.mb58.gz 33.95MB Kongsberg multibeam vendor format
0053_20141012_183751_Langseth.all.mb58.gz 21.00MB Kongsberg multibeam vendor format
0054_20140918_211342_Langseth.all.mb58.gz 19.01MB Kongsberg multibeam vendor format
0054_20140924_003859_Langseth.all.mb58.gz 18.98MB Kongsberg multibeam vendor format
0054_20140926_092641_Langseth.all.mb58.gz 19.13MB Kongsberg multibeam vendor format
0054_20140930_065229_Langseth.all.mb58.gz 22.43MB Kongsberg multibeam vendor format
0054_20141007_191732_Langseth.all.mb58.gz 165.42MB Kongsberg multibeam vendor format
0054_20141011_070535_Langseth.all.mb58.gz 33.35MB Kongsberg multibeam vendor format
0054_20141012_190747_Langseth.all.mb58.gz 21.03MB Kongsberg multibeam vendor format
0055_20140918_214343_Langseth.all.mb58.gz 19.17MB Kongsberg multibeam vendor format
0055_20140924_010909_Langseth.all.mb58.gz 18.91MB Kongsberg multibeam vendor format
0055_20140926_095635_Langseth.all.mb58.gz 19.13MB Kongsberg multibeam vendor format
0055_20140930_072227_Langseth.all.mb58.gz 22.45MB Kongsberg multibeam vendor format
0055_20141007_194732_Langseth.all.mb58.gz 164.53MB Kongsberg multibeam vendor format
0055_20141011_073539_Langseth.all.mb58.gz 33.25MB Kongsberg multibeam vendor format
0055_20141012_193744_Langseth.all.mb58.gz 20.91MB Kongsberg multibeam vendor format
0056_20140918_221350_Langseth.all.mb58.gz 19.15MB Kongsberg multibeam vendor format
0056_20140924_013912_Langseth.all.mb58.gz 18.91MB Kongsberg multibeam vendor format
0056_20140926_102633_Langseth.all.mb58.gz 19.42MB Kongsberg multibeam vendor format
0056_20140930_075229_Langseth.all.mb58.gz 22.34MB Kongsberg multibeam vendor format
0056_20141007_201732_Langseth.all.mb58.gz 100.81MB Kongsberg multibeam vendor format
0056_20141011_080542_Langseth.all.mb58.gz 33.04MB Kongsberg multibeam vendor format
0056_20141012_200749_Langseth.all.mb58.gz 20.46MB Kongsberg multibeam vendor format
0057_20140918_224350_Langseth.all.mb58.gz 19.11MB Kongsberg multibeam vendor format
0057_20140924_020913_Langseth.all.mb58.gz 18.84MB Kongsberg multibeam vendor format
0057_20140926_105641_Langseth.all.mb58.gz 19.29MB Kongsberg multibeam vendor format
0057_20140930_082226_Langseth.all.mb58.gz 22.37MB Kongsberg multibeam vendor format
0057_20141007_203956_Langseth.all.mb58.gz 213.89MB Kongsberg multibeam vendor format
0057_20141011_083535_Langseth.all.mb58.gz 33.21MB Kongsberg multibeam vendor format
0057_20141012_203752_Langseth.all.mb58.gz 11.55MB Kongsberg multibeam vendor format
0058_20140918_231338_Langseth.all.mb58.gz 19.40MB Kongsberg multibeam vendor format
0058_20140924_023907_Langseth.all.mb58.gz 18.95MB Kongsberg multibeam vendor format
0058_20140926_112642_Langseth.all.mb58.gz 19.34MB Kongsberg multibeam vendor format
0058_20140930_085226_Langseth.all.mb58.gz 22.84MB Kongsberg multibeam vendor format
0058_20141007_210956_Langseth.all.mb58.gz 229.18MB Kongsberg multibeam vendor format
0058_20141011_090538_Langseth.all.mb58.gz 33.07MB Kongsberg multibeam vendor format
0058_20141012_205727_Langseth.all.mb58.gz 20.54MB Kongsberg multibeam vendor format
0059_20140918_234351_Langseth.all.mb58.gz 19.29MB Kongsberg multibeam vendor format
0059_20140924_030911_Langseth.all.mb58.gz 19.01MB Kongsberg multibeam vendor format
0059_20140926_115647_Langseth.all.mb58.gz 19.16MB Kongsberg multibeam vendor format
0059_20140930_092231_Langseth.all.mb58.gz 22.61MB Kongsberg multibeam vendor format
0059_20141007_213956_Langseth.all.mb58.gz 66.74MB Kongsberg multibeam vendor format
0059_20141011_093539_Langseth.all.mb58.gz 32.50MB Kongsberg multibeam vendor format
0059_20141012_212726_Langseth.all.mb58.gz 20.36MB Kongsberg multibeam vendor format
0060_20140919_001352_Langseth.all.mb58.gz 19.27MB Kongsberg multibeam vendor format
0060_20140924_033918_Langseth.all.mb58.gz 19.12MB Kongsberg multibeam vendor format
0060_20140926_122637_Langseth.all.mb58.gz 19.38MB Kongsberg multibeam vendor format
0060_20140930_095222_Langseth.all.mb58.gz 3.07MB Kongsberg multibeam vendor format
0060_20141007_215047_Langseth.all.mb58.gz 239.02MB Kongsberg multibeam vendor format
0060_20141011_100536_Langseth.all.mb58.gz 32.95MB Kongsberg multibeam vendor format
0060_20141012_215726_Langseth.all.mb58.gz 20.58MB Kongsberg multibeam vendor format
0061_20140919_004349_Langseth.all.mb58.gz 19.17MB Kongsberg multibeam vendor format
0061_20140924_040935_Langseth.all.mb58.gz 18.67MB Kongsberg multibeam vendor format
0061_20140926_125648_Langseth.all.mb58.gz 19.16MB Kongsberg multibeam vendor format
0061_20140930_095822_Langseth.all.mb58.gz 22.76MB Kongsberg multibeam vendor format
0061_20141007_222047_Langseth.all.mb58.gz 247.72MB Kongsberg multibeam vendor format
0061_20141011_103534_Langseth.all.mb58.gz 33.33MB Kongsberg multibeam vendor format
0061_20141012_222729_Langseth.all.mb58.gz 20.42MB Kongsberg multibeam vendor format
0062_20140919_011336_Langseth.all.mb58.gz 19.51MB Kongsberg multibeam vendor format
0062_20140924_043904_Langseth.all.mb58.gz 18.67MB Kongsberg multibeam vendor format
0062_20140926_132644_Langseth.all.mb58.gz 19.09MB Kongsberg multibeam vendor format
0062_20140930_102817_Langseth.all.mb58.gz 22.85MB Kongsberg multibeam vendor format
0062_20141007_225047_Langseth.all.mb58.gz 224.76MB Kongsberg multibeam vendor format
0062_20141011_110536_Langseth.all.mb58.gz 29.84MB Kongsberg multibeam vendor format
0062_20141012_225725_Langseth.all.mb58.gz 20.63MB Kongsberg multibeam vendor format
0063_20140919_014352_Langseth.all.mb58.gz 19.21MB Kongsberg multibeam vendor format
0063_20140924_050859_Langseth.all.mb58.gz 19.07MB Kongsberg multibeam vendor format
0063_20140926_135639_Langseth.all.mb58.gz 19.26MB Kongsberg multibeam vendor format
0063_20140930_105822_Langseth.all.mb58.gz 22.89MB Kongsberg multibeam vendor format
0063_20141007_232047_Langseth.all.mb58.gz 238.25MB Kongsberg multibeam vendor format
0063_20141011_113536_Langseth.all.mb58.gz 23.29MB Kongsberg multibeam vendor format
0063_20141012_232725_Langseth.all.mb58.gz 20.69MB Kongsberg multibeam vendor format
0064_20140919_021339_Langseth.all.mb58.gz 19.55MB Kongsberg multibeam vendor format
0064_20140924_053905_Langseth.all.mb58.gz 19.07MB Kongsberg multibeam vendor format
0064_20140926_142638_Langseth.all.mb58.gz 19.43MB Kongsberg multibeam vendor format
0064_20140930_112821_Langseth.all.mb58.gz 22.97MB Kongsberg multibeam vendor format
0064_20141007_235047_Langseth.all.mb58.gz 195.32MB Kongsberg multibeam vendor format
0064_20141011_120537_Langseth.all.mb58.gz 9.30MB Kongsberg multibeam vendor format
0064_20141012_235731_Langseth.all.mb58.gz 20.74MB Kongsberg multibeam vendor format
0065_20140919_024352_Langseth.all.mb58.gz 19.33MB Kongsberg multibeam vendor format
0065_20140924_060912_Langseth.all.mb58.gz 19.17MB Kongsberg multibeam vendor format
0065_20140926_145654_Langseth.all.mb58.gz 19.06MB Kongsberg multibeam vendor format
0065_20140930_115820_Langseth.all.mb58.gz 22.61MB Kongsberg multibeam vendor format
0065_20141008_002047_Langseth.all.mb58.gz 203.92MB Kongsberg multibeam vendor format
0065_20141011_122447_Langseth.all.mb58.gz 23.02MB Kongsberg multibeam vendor format
0065_20141013_002730_Langseth.all.mb58.gz 20.84MB Kongsberg multibeam vendor format
0066_20140919_031342_Langseth.all.mb58.gz 19.54MB Kongsberg multibeam vendor format
0066_20140924_063915_Langseth.all.mb58.gz 19.11MB Kongsberg multibeam vendor format
0066_20140926_152638_Langseth.all.mb58.gz 19.28MB Kongsberg multibeam vendor format
0066_20140930_122822_Langseth.all.mb58.gz 22.46MB Kongsberg multibeam vendor format
0066_20141008_005047_Langseth.all.mb58.gz 163.94MB Kongsberg multibeam vendor format
0066_20141011_125438_Langseth.all.mb58.gz 23.30MB Kongsberg multibeam vendor format
0066_20141013_005721_Langseth.all.mb58.gz 21.14MB Kongsberg multibeam vendor format
0067_20140919_034343_Langseth.all.mb58.gz 19.68MB Kongsberg multibeam vendor format
0067_20140924_070901_Langseth.all.mb58.gz 19.41MB Kongsberg multibeam vendor format
0067_20140926_155641_Langseth.all.mb58.gz 19.33MB Kongsberg multibeam vendor format
0067_20140930_125822_Langseth.all.mb58.gz 22.76MB Kongsberg multibeam vendor format
0067_20141008_012047_Langseth.all.mb58.gz 168.32MB Kongsberg multibeam vendor format
0067_20141011_132445_Langseth.all.mb58.gz 22.93MB Kongsberg multibeam vendor format
0067_20141013_012730_Langseth.all.mb58.gz 20.88MB Kongsberg multibeam vendor format
0068_20140919_041351_Langseth.all.mb58.gz 19.59MB Kongsberg multibeam vendor format
0068_20140924_073916_Langseth.all.mb58.gz 19.18MB Kongsberg multibeam vendor format
0068_20140926_162645_Langseth.all.mb58.gz 19.35MB Kongsberg multibeam vendor format
0068_20140930_132825_Langseth.all.mb58.gz 22.86MB Kongsberg multibeam vendor format
0068_20141008_015047_Langseth.all.mb58.gz 168.99MB Kongsberg multibeam vendor format
0068_20141011_135438_Langseth.all.mb58.gz 23.10MB Kongsberg multibeam vendor format
0068_20141013_015721_Langseth.all.mb58.gz 21.11MB Kongsberg multibeam vendor format
0069_20140919_044347_Langseth.all.mb58.gz 19.68MB Kongsberg multibeam vendor format
0069_20140924_080910_Langseth.all.mb58.gz 19.18MB Kongsberg multibeam vendor format
0069_20140926_165650_Langseth.all.mb58.gz 19.09MB Kongsberg multibeam vendor format
0069_20140930_135825_Langseth.all.mb58.gz 22.65MB Kongsberg multibeam vendor format
0069_20141008_022048_Langseth.all.mb58.gz 79.48MB Kongsberg multibeam vendor format
0069_20141011_142444_Langseth.all.mb58.gz 22.95MB Kongsberg multibeam vendor format
0069_20141013_022728_Langseth.all.mb58.gz 21.06MB Kongsberg multibeam vendor format
0070_20140919_051349_Langseth.all.mb58.gz 19.73MB Kongsberg multibeam vendor format
0070_20140924_083903_Langseth.all.mb58.gz 19.21MB Kongsberg multibeam vendor format
0070_20140926_172636_Langseth.all.mb58.gz 19.30MB Kongsberg multibeam vendor format
0070_20140930_142815_Langseth.all.mb58.gz 23.00MB Kongsberg multibeam vendor format
0070_20141008_023733_Langseth.all.mb58.gz 1.90MB Kongsberg multibeam vendor format
0070_20141011_145439_Langseth.all.mb58.gz 23.02MB Kongsberg multibeam vendor format
0070_20141013_025730_Langseth.all.mb58.gz 20.89MB Kongsberg multibeam vendor format
0071_20140919_054353_Langseth.all.mb58.gz 19.58MB Kongsberg multibeam vendor format
0071_20140924_090901_Langseth.all.mb58.gz 19.29MB Kongsberg multibeam vendor format
0071_20140926_175644_Langseth.all.mb58.gz 18.99MB Kongsberg multibeam vendor format
0071_20140930_145817_Langseth.all.mb58.gz 23.12MB Kongsberg multibeam vendor format
0071_20141008_024017_Langseth.all.mb58.gz 67.30MB Kongsberg multibeam vendor format
0071_20141011_152438_Langseth.all.mb58.gz 23.09MB Kongsberg multibeam vendor format
0071_20141013_032719_Langseth.all.mb58.gz 21.06MB Kongsberg multibeam vendor format
0072_20140919_061339_Langseth.all.mb58.gz 19.83MB Kongsberg multibeam vendor format
0072_20140924_093908_Langseth.all.mb58.gz 19.31MB Kongsberg multibeam vendor format
0072_20140926_182637_Langseth.all.mb58.gz 18.94MB Kongsberg multibeam vendor format
0072_20140930_152822_Langseth.all.mb58.gz 23.04MB Kongsberg multibeam vendor format
0072_20141008_031018_Langseth.all.mb58.gz 49.05MB Kongsberg multibeam vendor format
0072_20141011_155445_Langseth.all.mb58.gz 14.93MB Kongsberg multibeam vendor format
0072_20141013_035726_Langseth.all.mb58.gz 21.04MB Kongsberg multibeam vendor format
0073_20140919_064340_Langseth.all.mb58.gz 19.97MB Kongsberg multibeam vendor format
0073_20140924_100911_Langseth.all.mb58.gz 19.32MB Kongsberg multibeam vendor format
0073_20140926_185634_Langseth.all.mb58.gz 19.20MB Kongsberg multibeam vendor format
0073_20140930_155816_Langseth.all.mb58.gz 23.17MB Kongsberg multibeam vendor format
0073_20141008_034019_Langseth.all.mb58.gz 43.70MB Kongsberg multibeam vendor format
0073_20141013_042728_Langseth.all.mb58.gz 20.83MB Kongsberg multibeam vendor format
0074_20140919_071339_Langseth.all.mb58.gz 20.01MB Kongsberg multibeam vendor format
0074_20140924_103915_Langseth.all.mb58.gz 19.25MB Kongsberg multibeam vendor format
0074_20140926_192650_Langseth.all.mb58.gz 18.75MB Kongsberg multibeam vendor format
0074_20140930_162822_Langseth.all.mb58.gz 23.18MB Kongsberg multibeam vendor format
0074_20141008_041021_Langseth.all.mb58.gz 41.52MB Kongsberg multibeam vendor format
0074_20141013_045720_Langseth.all.mb58.gz 20.94MB Kongsberg multibeam vendor format
0075_20140919_074336_Langseth.all.mb58.gz 20.21MB Kongsberg multibeam vendor format
0075_20140924_110913_Langseth.all.mb58.gz 19.21MB Kongsberg multibeam vendor format
0075_20140926_195650_Langseth.all.mb58.gz 18.79MB Kongsberg multibeam vendor format
0075_20140930_165826_Langseth.all.mb58.gz 23.07MB Kongsberg multibeam vendor format
0075_20141008_044020_Langseth.all.mb58.gz 39.88MB Kongsberg multibeam vendor format
0075_20141013_052720_Langseth.all.mb58.gz 20.99MB Kongsberg multibeam vendor format
0076_20140919_081348_Langseth.all.mb58.gz 20.02MB Kongsberg multibeam vendor format
0076_20140924_113905_Langseth.all.mb58.gz 19.38MB Kongsberg multibeam vendor format
0076_20140926_202639_Langseth.all.mb58.gz 18.94MB Kongsberg multibeam vendor format
0076_20140930_172817_Langseth.all.mb58.gz 23.26MB Kongsberg multibeam vendor format
0076_20141008_051020_Langseth.all.mb58.gz 35.52MB Kongsberg multibeam vendor format
0076_20141013_055727_Langseth.all.mb58.gz 20.82MB Kongsberg multibeam vendor format
0077_20140919_084338_Langseth.all.mb58.gz 20.24MB Kongsberg multibeam vendor format
0077_20140924_120918_Langseth.all.mb58.gz 19.01MB Kongsberg multibeam vendor format
0077_20140926_205634_Langseth.all.mb58.gz 18.99MB Kongsberg multibeam vendor format
0077_20140930_175817_Langseth.all.mb58.gz 23.46MB Kongsberg multibeam vendor format
0077_20141008_054022_Langseth.all.mb58.gz 34.77MB Kongsberg multibeam vendor format
0077_20141013_062725_Langseth.all.mb58.gz 20.99MB Kongsberg multibeam vendor format
0078_20140919_091341_Langseth.all.mb58.gz 20.56MB Kongsberg multibeam vendor format
0078_20140924_123910_Langseth.all.mb58.gz 19.33MB Kongsberg multibeam vendor format
0078_20140926_212636_Langseth.all.mb58.gz 19.04MB Kongsberg multibeam vendor format
0078_20140930_182824_Langseth.all.mb58.gz 23.52MB Kongsberg multibeam vendor format
0078_20141008_061020_Langseth.all.mb58.gz 35.15MB Kongsberg multibeam vendor format
0078_20141013_065728_Langseth.all.mb58.gz 20.97MB Kongsberg multibeam vendor format
0079_20140919_094352_Langseth.all.mb58.gz 20.39MB Kongsberg multibeam vendor format
0079_20140924_130911_Langseth.all.mb58.gz 19.30MB Kongsberg multibeam vendor format
0079_20140926_215647_Langseth.all.mb58.gz 18.93MB Kongsberg multibeam vendor format
0079_20140930_185824_Langseth.all.mb58.gz 30.59MB Kongsberg multibeam vendor format
0079_20141008_064024_Langseth.all.mb58.gz 34.77MB Kongsberg multibeam vendor format
0079_20141013_072725_Langseth.all.mb58.gz 21.03MB Kongsberg multibeam vendor format
0080_20140919_101346_Langseth.all.mb58.gz 20.45MB Kongsberg multibeam vendor format
0080_20140924_133910_Langseth.all.mb58.gz 19.18MB Kongsberg multibeam vendor format
0080_20140926_222651_Langseth.all.mb58.gz 18.88MB Kongsberg multibeam vendor format
0080_20140930_192821_Langseth.all.mb58.gz 33.89MB Kongsberg multibeam vendor format
0080_20141008_071020_Langseth.all.mb58.gz 34.73MB Kongsberg multibeam vendor format
0080_20141013_075728_Langseth.all.mb58.gz 20.95MB Kongsberg multibeam vendor format
0081_20140919_104338_Langseth.all.mb58.gz 20.74MB Kongsberg multibeam vendor format
0081_20140924_140909_Langseth.all.mb58.gz 19.22MB Kongsberg multibeam vendor format
0081_20140926_225649_Langseth.all.mb58.gz 18.71MB Kongsberg multibeam vendor format
0081_20140930_195821_Langseth.all.mb58.gz 33.20MB Kongsberg multibeam vendor format
0081_20141008_074023_Langseth.all.mb58.gz 34.21MB Kongsberg multibeam vendor format
0081_20141013_082721_Langseth.all.mb58.gz 20.97MB Kongsberg multibeam vendor format
0082_20140919_111348_Langseth.all.mb58.gz 20.84MB Kongsberg multibeam vendor format
0082_20140924_143908_Langseth.all.mb58.gz 19.20MB Kongsberg multibeam vendor format
0082_20140926_232634_Langseth.all.mb58.gz 19.00MB Kongsberg multibeam vendor format
0082_20140930_202816_Langseth.all.mb58.gz 28.08MB Kongsberg multibeam vendor format
0082_20141008_081021_Langseth.all.mb58.gz 33.88MB Kongsberg multibeam vendor format
0082_20141013_085720_Langseth.all.mb58.gz 20.72MB Kongsberg multibeam vendor format
0083_20140919_114349_Langseth.all.mb58.gz 20.96MB Kongsberg multibeam vendor format
0083_20140924_150901_Langseth.all.mb58.gz 19.21MB Kongsberg multibeam vendor format
0083_20140926_235643_Langseth.all.mb58.gz 18.81MB Kongsberg multibeam vendor format
0083_20140930_205820_Langseth.all.mb58.gz 23.44MB Kongsberg multibeam vendor format
0083_20141008_084025_Langseth.all.mb58.gz 33.04MB Kongsberg multibeam vendor format
0083_20141013_092720_Langseth.all.mb58.gz 20.61MB Kongsberg multibeam vendor format
0084_20140919_121347_Langseth.all.mb58.gz 21.08MB Kongsberg multibeam vendor format
0084_20140924_153914_Langseth.all.mb58.gz 19.03MB Kongsberg multibeam vendor format
0084_20140927_002634_Langseth.all.mb58.gz 19.03MB Kongsberg multibeam vendor format
0084_20140930_212823_Langseth.all.mb58.gz 23.34MB Kongsberg multibeam vendor format
0084_20141008_091017_Langseth.all.mb58.gz 27.82MB Kongsberg multibeam vendor format
0084_20141013_095728_Langseth.all.mb58.gz 20.52MB Kongsberg multibeam vendor format
0085_20140919_124350_Langseth.all.mb58.gz 21.00MB Kongsberg multibeam vendor format
0085_20140924_160900_Langseth.all.mb58.gz 19.31MB Kongsberg multibeam vendor format
0085_20140927_005649_Langseth.all.mb58.gz 18.86MB Kongsberg multibeam vendor format
0085_20140930_215822_Langseth.all.mb58.gz 23.22MB Kongsberg multibeam vendor format
0085_20141008_094026_Langseth.all.mb58.gz 23.07MB Kongsberg multibeam vendor format
0085_20141013_102727_Langseth.all.mb58.gz 20.60MB Kongsberg multibeam vendor format
0086_20140919_131342_Langseth.all.mb58.gz 21.34MB Kongsberg multibeam vendor format
0086_20140924_163911_Langseth.all.mb58.gz 19.24MB Kongsberg multibeam vendor format
0086_20140927_012649_Langseth.all.mb58.gz 18.82MB Kongsberg multibeam vendor format
0086_20140930_222822_Langseth.all.mb58.gz 23.19MB Kongsberg multibeam vendor format
0086_20141008_101023_Langseth.all.mb58.gz 23.29MB Kongsberg multibeam vendor format
0086_20141013_105724_Langseth.all.mb58.gz 20.62MB Kongsberg multibeam vendor format
0087_20140919_134342_Langseth.all.mb58.gz 21.53MB Kongsberg multibeam vendor format
0087_20140924_170917_Langseth.all.mb58.gz 19.26MB Kongsberg multibeam vendor format
0087_20140927_015648_Langseth.all.mb58.gz 18.68MB Kongsberg multibeam vendor format
0087_20140930_225824_Langseth.all.mb58.gz 23.05MB Kongsberg multibeam vendor format
0087_20141008_104027_Langseth.all.mb58.gz 23.39MB Kongsberg multibeam vendor format
0087_20141013_112726_Langseth.all.mb58.gz 20.50MB Kongsberg multibeam vendor format
0088_20140919_141348_Langseth.all.mb58.gz 21.39MB Kongsberg multibeam vendor format
0088_20140924_173909_Langseth.all.mb58.gz 19.11MB Kongsberg multibeam vendor format
0088_20140927_022633_Langseth.all.mb58.gz 18.87MB Kongsberg multibeam vendor format
0088_20140930_232816_Langseth.all.mb58.gz 23.16MB Kongsberg multibeam vendor format
0088_20141008_111024_Langseth.all.mb58.gz 23.36MB Kongsberg multibeam vendor format
0088_20141013_115721_Langseth.all.mb58.gz 20.58MB Kongsberg multibeam vendor format
0089_20140919_144337_Langseth.all.mb58.gz 21.64MB Kongsberg multibeam vendor format
0089_20140924_180900_Langseth.all.mb58.gz 19.54MB Kongsberg multibeam vendor format
0089_20140927_025644_Langseth.all.mb58.gz 18.87MB Kongsberg multibeam vendor format
0089_20140930_235820_Langseth.all.mb58.gz 22.99MB Kongsberg multibeam vendor format
0089_20141008_114017_Langseth.all.mb58.gz 23.58MB Kongsberg multibeam vendor format
0089_20141013_122719_Langseth.all.mb58.gz 20.50MB Kongsberg multibeam vendor format
0090_20140919_151340_Langseth.all.mb58.gz 21.73MB Kongsberg multibeam vendor format
0090_20140924_183916_Langseth.all.mb58.gz 19.26MB Kongsberg multibeam vendor format
0090_20140927_032648_Langseth.all.mb58.gz 18.55MB Kongsberg multibeam vendor format
0090_20141001_002821_Langseth.all.mb58.gz 22.68MB Kongsberg multibeam vendor format
0090_20141008_121023_Langseth.all.mb58.gz 23.96MB Kongsberg multibeam vendor format
0090_20141013_125731_Langseth.all.mb58.gz 20.30MB Kongsberg multibeam vendor format
0091_20140919_154344_Langseth.all.mb58.gz 22.05MB Kongsberg multibeam vendor format
0091_20140924_190904_Langseth.all.mb58.gz 19.44MB Kongsberg multibeam vendor format
0091_20140927_035638_Langseth.all.mb58.gz 18.69MB Kongsberg multibeam vendor format
0091_20141001_005816_Langseth.all.mb58.gz 22.61MB Kongsberg multibeam vendor format
0091_20141008_124024_Langseth.all.mb58.gz 33.41MB Kongsberg multibeam vendor format
0091_20141013_132726_Langseth.all.mb58.gz 18.43MB Kongsberg multibeam vendor format
0092_20140919_161348_Langseth.all.mb58.gz 21.93MB Kongsberg multibeam vendor format
0092_20140924_193913_Langseth.all.mb58.gz 19.46MB Kongsberg multibeam vendor format
0092_20140927_042636_Langseth.all.mb58.gz 18.72MB Kongsberg multibeam vendor format
0092_20141001_012823_Langseth.all.mb58.gz 22.23MB Kongsberg multibeam vendor format
0092_20141008_131022_Langseth.all.mb58.gz 33.77MB Kongsberg multibeam vendor format
0092_20141013_140152_Langseth.all.mb58.gz 20.83MB Kongsberg multibeam vendor format
0093_20140919_164336_Langseth.all.mb58.gz 22.13MB Kongsberg multibeam vendor format
0093_20140924_200914_Langseth.all.mb58.gz 19.21MB Kongsberg multibeam vendor format
0093_20140927_045641_Langseth.all.mb58.gz 18.81MB Kongsberg multibeam vendor format
0093_20141001_015818_Langseth.all.mb58.gz 22.21MB Kongsberg multibeam vendor format
0093_20141008_134024_Langseth.all.mb58.gz 33.86MB Kongsberg multibeam vendor format
0093_20141013_143159_Langseth.all.mb58.gz 20.67MB Kongsberg multibeam vendor format
0094_20140919_171337_Langseth.all.mb58.gz 22.32MB Kongsberg multibeam vendor format
0094_20140924_203904_Langseth.all.mb58.gz 19.44MB Kongsberg multibeam vendor format
0094_20140927_052652_Langseth.all.mb58.gz 18.58MB Kongsberg multibeam vendor format
0094_20141001_022820_Langseth.all.mb58.gz 21.89MB Kongsberg multibeam vendor format
0094_20141008_141019_Langseth.all.mb58.gz 33.98MB Kongsberg multibeam vendor format
0094_20141013_150151_Langseth.all.mb58.gz 21.03MB Kongsberg multibeam vendor format
0095_20140919_174348_Langseth.all.mb58.gz 22.26MB Kongsberg multibeam vendor format
0095_20140924_210918_Langseth.all.mb58.gz 19.23MB Kongsberg multibeam vendor format
0095_20140927_055640_Langseth.all.mb58.gz 18.56MB Kongsberg multibeam vendor format
0095_20141001_025820_Langseth.all.mb58.gz 33.40MB Kongsberg multibeam vendor format
0095_20141008_144020_Langseth.all.mb58.gz 34.12MB Kongsberg multibeam vendor format
0095_20141013_153202_Langseth.all.mb58.gz 20.84MB Kongsberg multibeam vendor format
0096_20140919_181342_Langseth.all.mb58.gz 22.55MB Kongsberg multibeam vendor format
0096_20140924_213908_Langseth.all.mb58.gz 19.32MB Kongsberg multibeam vendor format
0096_20140927_062638_Langseth.all.mb58.gz 18.69MB Kongsberg multibeam vendor format
0096_20141001_034423_Langseth.all.mb58.gz 21.75MB Kongsberg multibeam vendor format
0096_20141008_151018_Langseth.all.mb58.gz 34.31MB Kongsberg multibeam vendor format
0096_20141013_160155_Langseth.all.mb58.gz 21.12MB Kongsberg multibeam vendor format
0097_20140919_184337_Langseth.all.mb58.gz 22.68MB Kongsberg multibeam vendor format
0097_20140924_220902_Langseth.all.mb58.gz 19.48MB Kongsberg multibeam vendor format
0097_20140927_065643_Langseth.all.mb58.gz 18.66MB Kongsberg multibeam vendor format
0097_20141001_041418_Langseth.all.mb58.gz 21.65MB Kongsberg multibeam vendor format
0097_20141008_154018_Langseth.all.mb58.gz 34.24MB Kongsberg multibeam vendor format
0097_20141013_163156_Langseth.all.mb58.gz 21.41MB Kongsberg multibeam vendor format
0098_20140919_191339_Langseth.all.mb58.gz 22.61MB Kongsberg multibeam vendor format
0098_20140924_223914_Langseth.all.mb58.gz 19.49MB Kongsberg multibeam vendor format
0098_20140927_072641_Langseth.all.mb58.gz 18.65MB Kongsberg multibeam vendor format
0098_20141001_044415_Langseth.all.mb58.gz 21.65MB Kongsberg multibeam vendor format
0098_20141008_161018_Langseth.all.mb58.gz 33.92MB Kongsberg multibeam vendor format
0098_20141013_170152_Langseth.all.mb58.gz 21.59MB Kongsberg multibeam vendor format
0099_20140919_194338_Langseth.all.mb58.gz 22.74MB Kongsberg multibeam vendor format
0099_20140924_230908_Langseth.all.mb58.gz 19.38MB Kongsberg multibeam vendor format
0099_20140927_075640_Langseth.all.mb58.gz 18.55MB Kongsberg multibeam vendor format
0099_20141001_051423_Langseth.all.mb58.gz 21.56MB Kongsberg multibeam vendor format
0099_20141008_164022_Langseth.all.mb58.gz 34.25MB Kongsberg multibeam vendor format
0099_20141013_173202_Langseth.all.mb58.gz 21.44MB Kongsberg multibeam vendor format
0100_20140919_201342_Langseth.all.mb58.gz 22.68MB Kongsberg multibeam vendor format
0100_20140924_233903_Langseth.all.mb58.gz 19.50MB Kongsberg multibeam vendor format
0100_20140927_082634_Langseth.all.mb58.gz 18.78MB Kongsberg multibeam vendor format
0100_20141001_054418_Langseth.all.mb58.gz 21.59MB Kongsberg multibeam vendor format
0100_20141008_171022_Langseth.all.mb58.gz 34.14MB Kongsberg multibeam vendor format
0100_20141013_180150_Langseth.all.mb58.gz 19.43MB Kongsberg multibeam vendor format
0101_20140919_204338_Langseth.all.mb58.gz 22.71MB Kongsberg multibeam vendor format
0101_20140925_000904_Langseth.all.mb58.gz 19.40MB Kongsberg multibeam vendor format
0101_20140927_085649_Langseth.all.mb58.gz 18.50MB Kongsberg multibeam vendor format
0101_20141001_061416_Langseth.all.mb58.gz 21.39MB Kongsberg multibeam vendor format
0101_20141008_174018_Langseth.all.mb58.gz 34.21MB Kongsberg multibeam vendor format
0101_20141013_182909_Langseth.all.mb58.gz 17.74MB Kongsberg multibeam vendor format
0102_20140919_211338_Langseth.all.mb58.gz 22.30MB Kongsberg multibeam vendor format
0102_20140925_003909_Langseth.all.mb58.gz 19.34MB Kongsberg multibeam vendor format
0102_20140927_092637_Langseth.all.mb58.gz 18.77MB Kongsberg multibeam vendor format
0102_20141001_064416_Langseth.all.mb58.gz 21.55MB Kongsberg multibeam vendor format
0102_20141008_181024_Langseth.all.mb58.gz 35.01MB Kongsberg multibeam vendor format
0102_20141013_185559_Langseth.all.mb58.gz 22.51MB Kongsberg multibeam vendor format
0103_20140919_214338_Langseth.all.mb58.gz 28.96MB Kongsberg multibeam vendor format
0103_20140925_010913_Langseth.all.mb58.gz 19.47MB Kongsberg multibeam vendor format
0103_20140927_095648_Langseth.all.mb58.gz 18.52MB Kongsberg multibeam vendor format
0103_20141001_071420_Langseth.all.mb58.gz 21.72MB Kongsberg multibeam vendor format
0103_20141008_184025_Langseth.all.mb58.gz 35.24MB Kongsberg multibeam vendor format
0103_20141013_192559_Langseth.all.mb58.gz 22.61MB Kongsberg multibeam vendor format
0104_20140919_221338_Langseth.all.mb58.gz 35.84MB Kongsberg multibeam vendor format
0104_20140925_013917_Langseth.all.mb58.gz 19.33MB Kongsberg multibeam vendor format
0104_20140927_102636_Langseth.all.mb58.gz 18.84MB Kongsberg multibeam vendor format
0104_20141001_074426_Langseth.all.mb58.gz 21.65MB Kongsberg multibeam vendor format
0104_20141008_191020_Langseth.all.mb58.gz 36.16MB Kongsberg multibeam vendor format
0104_20141013_195554_Langseth.all.mb58.gz 22.98MB Kongsberg multibeam vendor format
0105_20140919_224337_Langseth.all.mb58.gz 40.91MB Kongsberg multibeam vendor format
0105_20140925_020901_Langseth.all.mb58.gz 19.70MB Kongsberg multibeam vendor format
0105_20140927_105653_Langseth.all.mb58.gz 18.54MB Kongsberg multibeam vendor format
0105_20141001_081424_Langseth.all.mb58.gz 21.40MB Kongsberg multibeam vendor format
0105_20141008_194023_Langseth.all.mb58.gz 36.62MB Kongsberg multibeam vendor format
0105_20141013_202559_Langseth.all.mb58.gz 23.22MB Kongsberg multibeam vendor format
0106_20140919_231343_Langseth.all.mb58.gz 42.17MB Kongsberg multibeam vendor format
0106_20140925_023912_Langseth.all.mb58.gz 19.44MB Kongsberg multibeam vendor format
0106_20140927_112640_Langseth.all.mb58.gz 18.72MB Kongsberg multibeam vendor format
0106_20141001_084420_Langseth.all.mb58.gz 21.94MB Kongsberg multibeam vendor format
0106_20141008_201020_Langseth.all.mb58.gz 40.33MB Kongsberg multibeam vendor format
0106_20141013_205604_Langseth.all.mb58.gz 23.36MB Kongsberg multibeam vendor format
0107_20140919_234339_Langseth.all.mb58.gz 43.54MB Kongsberg multibeam vendor format
0107_20140925_030907_Langseth.all.mb58.gz 19.56MB Kongsberg multibeam vendor format
0107_20140927_115643_Langseth.all.mb58.gz 18.77MB Kongsberg multibeam vendor format
0107_20141001_091417_Langseth.all.mb58.gz 21.91MB Kongsberg multibeam vendor format
0107_20141008_204020_Langseth.all.mb58.gz 41.14MB Kongsberg multibeam vendor format
0107_20141013_212556_Langseth.all.mb58.gz 30.74MB Kongsberg multibeam vendor format
0108_20140920_001337_Langseth.all.mb58.gz 48.67MB Kongsberg multibeam vendor format
0108_20140925_033911_Langseth.all.mb58.gz 19.48MB Kongsberg multibeam vendor format
0108_20140927_122652_Langseth.all.mb58.gz 18.64MB Kongsberg multibeam vendor format
0108_20141001_094418_Langseth.all.mb58.gz 21.52MB Kongsberg multibeam vendor format
0108_20141008_211019_Langseth.all.mb58.gz 44.99MB Kongsberg multibeam vendor format
0108_20141013_215555_Langseth.all.mb58.gz 34.83MB Kongsberg multibeam vendor format
0109_20140920_004339_Langseth.all.mb58.gz 52.23MB Kongsberg multibeam vendor format
0109_20140925_040910_Langseth.all.mb58.gz 19.54MB Kongsberg multibeam vendor format
0109_20140927_125651_Langseth.all.mb58.gz 18.43MB Kongsberg multibeam vendor format
0109_20141001_101417_Langseth.all.mb58.gz 21.38MB Kongsberg multibeam vendor format
0109_20141008_214019_Langseth.all.mb58.gz 58.88MB Kongsberg multibeam vendor format
0109_20141013_222556_Langseth.all.mb58.gz 40.50MB Kongsberg multibeam vendor format
0110_20140920_011339_Langseth.all.mb58.gz 55.63MB Kongsberg multibeam vendor format
0110_20140925_043904_Langseth.all.mb58.gz 19.57MB Kongsberg multibeam vendor format
0110_20140927_132634_Langseth.all.mb58.gz 18.79MB Kongsberg multibeam vendor format
0110_20141001_104420_Langseth.all.mb58.gz 21.34MB Kongsberg multibeam vendor format
0110_20141008_221017_Langseth.all.mb58.gz 119.48MB Kongsberg multibeam vendor format
0110_20141013_225559_Langseth.all.mb58.gz 42.66MB Kongsberg multibeam vendor format
0111_20140920_014337_Langseth.all.mb58.gz 58.58MB Kongsberg multibeam vendor format
0111_20140925_050911_Langseth.all.mb58.gz 19.60MB Kongsberg multibeam vendor format
0111_20140927_135650_Langseth.all.mb58.gz 18.56MB Kongsberg multibeam vendor format
0111_20141001_111425_Langseth.all.mb58.gz 21.35MB Kongsberg multibeam vendor format
0111_20141008_224018_Langseth.all.mb58.gz 154.74MB Kongsberg multibeam vendor format
0111_20141013_232556_Langseth.all.mb58.gz 46.13MB Kongsberg multibeam vendor format
0112_20140920_021337_Langseth.all.mb58.gz 60.46MB Kongsberg multibeam vendor format
0112_20140925_053913_Langseth.all.mb58.gz 19.53MB Kongsberg multibeam vendor format
0112_20140927_142644_Langseth.all.mb58.gz 18.57MB Kongsberg multibeam vendor format
0112_20141001_114425_Langseth.all.mb58.gz 21.35MB Kongsberg multibeam vendor format
0112_20141008_231018_Langseth.all.mb58.gz 165.83MB Kongsberg multibeam vendor format
0112_20141013_235554_Langseth.all.mb58.gz 51.27MB Kongsberg multibeam vendor format
0113_20140920_024339_Langseth.all.mb58.gz 62.06MB Kongsberg multibeam vendor format
0113_20140925_060915_Langseth.all.mb58.gz 9.51MB Kongsberg multibeam vendor format
0113_20140927_145640_Langseth.all.mb58.gz 18.58MB Kongsberg multibeam vendor format
0113_20141001_121420_Langseth.all.mb58.gz 21.45MB Kongsberg multibeam vendor format
0113_20141008_234018_Langseth.all.mb58.gz 165.16MB Kongsberg multibeam vendor format
0113_20141014_002557_Langseth.all.mb58.gz 53.61MB Kongsberg multibeam vendor format
0114_20140920_031337_Langseth.all.mb58.gz 64.11MB Kongsberg multibeam vendor format
0114_20140925_062346_Langseth.all.mb58.gz 0.55MB Kongsberg multibeam vendor format
0114_20140927_152636_Langseth.all.mb58.gz 18.77MB Kongsberg multibeam vendor format
0114_20141001_124425_Langseth.all.mb58.gz 21.36MB Kongsberg multibeam vendor format
0114_20141009_001018_Langseth.all.mb58.gz 64.54MB Kongsberg multibeam vendor format
0114_20141014_005557_Langseth.all.mb58.gz 55.01MB Kongsberg multibeam vendor format
0115_20140920_034337_Langseth.all.mb58.gz 66.65MB Kongsberg multibeam vendor format
0115_20140927_155652_Langseth.all.mb58.gz 18.56MB Kongsberg multibeam vendor format
0115_20141001_131420_Langseth.all.mb58.gz 21.49MB Kongsberg multibeam vendor format
0115_20141009_002219_Langseth.all.mb58.gz 209.63MB Kongsberg multibeam vendor format
0115_20141014_012555_Langseth.all.mb58.gz 56.39MB Kongsberg multibeam vendor format
0116_20140920_041338_Langseth.all.mb58.gz 70.55MB Kongsberg multibeam vendor format
0116_20140927_162648_Langseth.all.mb58.gz 18.49MB Kongsberg multibeam vendor format
0116_20141001_134418_Langseth.all.mb58.gz 21.39MB Kongsberg multibeam vendor format
0116_20141009_005216_Langseth.all.mb58.gz 207.79MB Kongsberg multibeam vendor format
0116_20141014_015555_Langseth.all.mb58.gz 57.57MB Kongsberg multibeam vendor format
0117_20140920_044337_Langseth.all.mb58.gz 75.88MB Kongsberg multibeam vendor format
0117_20140927_165641_Langseth.all.mb58.gz 18.69MB Kongsberg multibeam vendor format
0117_20141001_141417_Langseth.all.mb58.gz 21.55MB Kongsberg multibeam vendor format
0117_20141009_012216_Langseth.all.mb58.gz 207.91MB Kongsberg multibeam vendor format
0117_20141014_022555_Langseth.all.mb58.gz 59.30MB Kongsberg multibeam vendor format
0118_20140920_051337_Langseth.all.mb58.gz 85.40MB Kongsberg multibeam vendor format
0118_20140927_172648_Langseth.all.mb58.gz 18.52MB Kongsberg multibeam vendor format
0118_20141001_144426_Langseth.all.mb58.gz 21.24MB Kongsberg multibeam vendor format
0118_20141009_015216_Langseth.all.mb58.gz 229.38MB Kongsberg multibeam vendor format
0118_20141014_025555_Langseth.all.mb58.gz 61.06MB Kongsberg multibeam vendor format
0119_20140920_054337_Langseth.all.mb58.gz 106.40MB Kongsberg multibeam vendor format
0119_20140927_175638_Langseth.all.mb58.gz 18.71MB Kongsberg multibeam vendor format
0119_20141001_151414_Langseth.all.mb58.gz 21.36MB Kongsberg multibeam vendor format
0119_20141009_022216_Langseth.all.mb58.gz 223.57MB Kongsberg multibeam vendor format
0119_20141014_032555_Langseth.all.mb58.gz 63.06MB Kongsberg multibeam vendor format
0120_20140920_061337_Langseth.all.mb58.gz 130.74MB Kongsberg multibeam vendor format
0120_20140927_182637_Langseth.all.mb58.gz 18.89MB Kongsberg multibeam vendor format
0120_20141001_154414_Langseth.all.mb58.gz 21.46MB Kongsberg multibeam vendor format
0120_20141009_025216_Langseth.all.mb58.gz 197.57MB Kongsberg multibeam vendor format
0120_20141014_035555_Langseth.all.mb58.gz 65.16MB Kongsberg multibeam vendor format
0121_20140920_064348_Langseth.all.mb58.gz 155.52MB Kongsberg multibeam vendor format
0121_20140927_185638_Langseth.all.mb58.gz 19.01MB Kongsberg multibeam vendor format
0121_20141001_161425_Langseth.all.mb58.gz 21.28MB Kongsberg multibeam vendor format
0121_20141009_032217_Langseth.all.mb58.gz 209.29MB Kongsberg multibeam vendor format
0121_20141014_042555_Langseth.all.mb58.gz 68.56MB Kongsberg multibeam vendor format
0122_20140920_071337_Langseth.all.mb58.gz 168.81MB Kongsberg multibeam vendor format
0122_20140927_192645_Langseth.all.mb58.gz 18.88MB Kongsberg multibeam vendor format
0122_20141001_164417_Langseth.all.mb58.gz 21.50MB Kongsberg multibeam vendor format
0122_20141009_035217_Langseth.all.mb58.gz 197.46MB Kongsberg multibeam vendor format
0122_20141014_045555_Langseth.all.mb58.gz 71.72MB Kongsberg multibeam vendor format
0123_20140920_074337_Langseth.all.mb58.gz 206.96MB Kongsberg multibeam vendor format
0123_20140927_195641_Langseth.all.mb58.gz 19.06MB Kongsberg multibeam vendor format
0123_20141001_171423_Langseth.all.mb58.gz 21.37MB Kongsberg multibeam vendor format
0123_20141009_042216_Langseth.all.mb58.gz 207.19MB Kongsberg multibeam vendor format
0123_20141014_052555_Langseth.all.mb58.gz 69.63MB Kongsberg multibeam vendor format
0124_20140920_081337_Langseth.all.mb58.gz 248.37MB Kongsberg multibeam vendor format
0124_20140927_202651_Langseth.all.mb58.gz 18.82MB Kongsberg multibeam vendor format
0124_20141001_174422_Langseth.all.mb58.gz 21.44MB Kongsberg multibeam vendor format
0124_20141009_045217_Langseth.all.mb58.gz 222.16MB Kongsberg multibeam vendor format
0124_20141014_055555_Langseth.all.mb58.gz 66.77MB Kongsberg multibeam vendor format
0125_20140920_084337_Langseth.all.mb58.gz 236.48MB Kongsberg multibeam vendor format
0125_20140927_205643_Langseth.all.mb58.gz 18.94MB Kongsberg multibeam vendor format
0125_20141001_181426_Langseth.all.mb58.gz 21.32MB Kongsberg multibeam vendor format
0125_20141009_052217_Langseth.all.mb58.gz 218.77MB Kongsberg multibeam vendor format
0125_20141014_062555_Langseth.all.mb58.gz 63.97MB Kongsberg multibeam vendor format
0126_20140920_091337_Langseth.all.mb58.gz 236.72MB Kongsberg multibeam vendor format
0126_20140927_212643_Langseth.all.mb58.gz 18.97MB Kongsberg multibeam vendor format
0126_20141001_184426_Langseth.all.mb58.gz 21.19MB Kongsberg multibeam vendor format
0126_20141009_055217_Langseth.all.mb58.gz 201.22MB Kongsberg multibeam vendor format
0126_20141014_065555_Langseth.all.mb58.gz 62.91MB Kongsberg multibeam vendor format
0127_20140920_094337_Langseth.all.mb58.gz 239.73MB Kongsberg multibeam vendor format
0127_20140927_215644_Langseth.all.mb58.gz 18.92MB Kongsberg multibeam vendor format
0127_20141001_191419_Langseth.all.mb58.gz 21.23MB Kongsberg multibeam vendor format
0127_20141009_062217_Langseth.all.mb58.gz 197.46MB Kongsberg multibeam vendor format
0127_20141014_072554_Langseth.all.mb58.gz 62.62MB Kongsberg multibeam vendor format
0128_20140920_101337_Langseth.all.mb58.gz 244.47MB Kongsberg multibeam vendor format
0128_20140927_222638_Langseth.all.mb58.gz 19.10MB Kongsberg multibeam vendor format
0128_20141001_194419_Langseth.all.mb58.gz 20.58MB Kongsberg multibeam vendor format
0128_20141009_065217_Langseth.all.mb58.gz 210.01MB Kongsberg multibeam vendor format
0128_20141014_075555_Langseth.all.mb58.gz 49.23MB Kongsberg multibeam vendor format
0129_20140920_104337_Langseth.all.mb58.gz 258.99MB Kongsberg multibeam vendor format
0129_20140927_225647_Langseth.all.mb58.gz 19.08MB Kongsberg multibeam vendor format
0129_20141001_201415_Langseth.all.mb58.gz 20.93MB Kongsberg multibeam vendor format
0129_20141009_072217_Langseth.all.mb58.gz 223.57MB Kongsberg multibeam vendor format
0129_20141014_082706_Langseth.all.mb58.gz 28.24MB Kongsberg multibeam vendor format
0130_20140920_111337_Langseth.all.mb58.gz 268.33MB Kongsberg multibeam vendor format
0130_20140927_232640_Langseth.all.mb58.gz 19.18MB Kongsberg multibeam vendor format
0130_20141001_204414_Langseth.all.mb58.gz 21.00MB Kongsberg multibeam vendor format
0130_20141009_075217_Langseth.all.mb58.gz 229.10MB Kongsberg multibeam vendor format
0130_20141014_084503_Langseth.all.mb58.gz 58.86MB Kongsberg multibeam vendor format
0131_20140920_114337_Langseth.all.mb58.gz 270.68MB Kongsberg multibeam vendor format
0131_20140927_235639_Langseth.all.mb58.gz 19.25MB Kongsberg multibeam vendor format
0131_20141001_211421_Langseth.all.mb58.gz 21.12MB Kongsberg multibeam vendor format
0131_20141009_082217_Langseth.all.mb58.gz 237.49MB Kongsberg multibeam vendor format
0131_20141014_091503_Langseth.all.mb58.gz 60.83MB Kongsberg multibeam vendor format
0132_20140920_121337_Langseth.all.mb58.gz 274.87MB Kongsberg multibeam vendor format
0132_20140928_002640_Langseth.all.mb58.gz 19.34MB Kongsberg multibeam vendor format
0132_20141001_214423_Langseth.all.mb58.gz 21.23MB Kongsberg multibeam vendor format
0132_20141009_085217_Langseth.all.mb58.gz 217.92MB Kongsberg multibeam vendor format
0132_20141014_094501_Langseth.all.mb58.gz 60.60MB Kongsberg multibeam vendor format
0133_20140920_124337_Langseth.all.mb58.gz 277.60MB Kongsberg multibeam vendor format
0133_20140928_005647_Langseth.all.mb58.gz 19.21MB Kongsberg multibeam vendor format
0133_20141001_221426_Langseth.all.mb58.gz 21.25MB Kongsberg multibeam vendor format
0133_20141009_092217_Langseth.all.mb58.gz 210.22MB Kongsberg multibeam vendor format
0133_20141014_101502_Langseth.all.mb58.gz 60.29MB Kongsberg multibeam vendor format
0134_20140920_131337_Langseth.all.mb58.gz 277.77MB Kongsberg multibeam vendor format
0134_20140928_012638_Langseth.all.mb58.gz 19.29MB Kongsberg multibeam vendor format
0134_20141001_224425_Langseth.all.mb58.gz 21.32MB Kongsberg multibeam vendor format
0134_20141009_095217_Langseth.all.mb58.gz 222.07MB Kongsberg multibeam vendor format
0134_20141014_104503_Langseth.all.mb58.gz 21.57MB Kongsberg multibeam vendor format
0135_20140920_134337_Langseth.all.mb58.gz 277.86MB Kongsberg multibeam vendor format
0135_20140928_015634_Langseth.all.mb58.gz 19.47MB Kongsberg multibeam vendor format
0135_20141001_231421_Langseth.all.mb58.gz 21.37MB Kongsberg multibeam vendor format
0135_20141009_102217_Langseth.all.mb58.gz 229.73MB Kongsberg multibeam vendor format
0135_20141014_105551_Langseth.all.mb58.gz 8.50MB Kongsberg multibeam vendor format
0136_20140920_141337_Langseth.all.mb58.gz 277.77MB Kongsberg multibeam vendor format
0136_20140928_022635_Langseth.all.mb58.gz 19.58MB Kongsberg multibeam vendor format
0136_20141001_234418_Langseth.all.mb58.gz 21.51MB Kongsberg multibeam vendor format
0136_20141009_105217_Langseth.all.mb58.gz 213.05MB Kongsberg multibeam vendor format
0136_20141014_110314_Langseth.all.mb58.gz 59.45MB Kongsberg multibeam vendor format
0137_20140920_144337_Langseth.all.mb58.gz 277.84MB Kongsberg multibeam vendor format
0137_20140928_025642_Langseth.all.mb58.gz 19.65MB Kongsberg multibeam vendor format
0137_20141002_001420_Langseth.all.mb58.gz 21.53MB Kongsberg multibeam vendor format
0137_20141009_112217_Langseth.all.mb58.gz 188.43MB Kongsberg multibeam vendor format
0137_20141014_113307_Langseth.all.mb58.gz 59.84MB Kongsberg multibeam vendor format
0138_20140920_151337_Langseth.all.mb58.gz 277.82MB Kongsberg multibeam vendor format
0138_20140928_032651_Langseth.all.mb58.gz 19.51MB Kongsberg multibeam vendor format
0138_20141002_004422_Langseth.all.mb58.gz 21.61MB Kongsberg multibeam vendor format
0138_20141009_115217_Langseth.all.mb58.gz 193.72MB Kongsberg multibeam vendor format
0138_20141014_120306_Langseth.all.mb58.gz 59.65MB Kongsberg multibeam vendor format
0139_20140920_154337_Langseth.all.mb58.gz 277.66MB Kongsberg multibeam vendor format
0139_20140928_035642_Langseth.all.mb58.gz 19.57MB Kongsberg multibeam vendor format
0139_20141002_011419_Langseth.all.mb58.gz 21.94MB Kongsberg multibeam vendor format
0139_20141009_122217_Langseth.all.mb58.gz 224.45MB Kongsberg multibeam vendor format
0139_20141014_123307_Langseth.all.mb58.gz 59.37MB Kongsberg multibeam vendor format
0140_20140920_161337_Langseth.all.mb58.gz 277.68MB Kongsberg multibeam vendor format
0140_20140928_042638_Langseth.all.mb58.gz 19.71MB Kongsberg multibeam vendor format
0140_20141002_014423_Langseth.all.mb58.gz 21.47MB Kongsberg multibeam vendor format
0140_20141009_125217_Langseth.all.mb58.gz 219.27MB Kongsberg multibeam vendor format
0140_20141014_130307_Langseth.all.mb58.gz 59.04MB Kongsberg multibeam vendor format
0141_20140920_164337_Langseth.all.mb58.gz 277.75MB Kongsberg multibeam vendor format
0141_20140928_045645_Langseth.all.mb58.gz 19.79MB Kongsberg multibeam vendor format
0141_20141002_021417_Langseth.all.mb58.gz 22.02MB Kongsberg multibeam vendor format
0141_20141009_132217_Langseth.all.mb58.gz 207.64MB Kongsberg multibeam vendor format
0141_20141014_133307_Langseth.all.mb58.gz 58.87MB Kongsberg multibeam vendor format
0142_20140920_171337_Langseth.all.mb58.gz 278.13MB Kongsberg multibeam vendor format
0142_20140928_052648_Langseth.all.mb58.gz 19.90MB Kongsberg multibeam vendor format
0142_20141002_024423_Langseth.all.mb58.gz 22.11MB Kongsberg multibeam vendor format
0142_20141009_135217_Langseth.all.mb58.gz 198.87MB Kongsberg multibeam vendor format
0142_20141014_140307_Langseth.all.mb58.gz 58.55MB Kongsberg multibeam vendor format
0143_20140920_174337_Langseth.all.mb58.gz 277.72MB Kongsberg multibeam vendor format
0143_20140928_055644_Langseth.all.mb58.gz 19.91MB Kongsberg multibeam vendor format
0143_20141002_031424_Langseth.all.mb58.gz 22.03MB Kongsberg multibeam vendor format
0143_20141009_142217_Langseth.all.mb58.gz 209.67MB Kongsberg multibeam vendor format
0143_20141014_143306_Langseth.all.mb58.gz 58.29MB Kongsberg multibeam vendor format
0144_20140920_181337_Langseth.all.mb58.gz 277.82MB Kongsberg multibeam vendor format
0144_20140928_062634_Langseth.all.mb58.gz 20.24MB Kongsberg multibeam vendor format
0144_20141002_034420_Langseth.all.mb58.gz 22.00MB Kongsberg multibeam vendor format
0144_20141009_145222_Langseth.all.mb58.gz 225.64MB Kongsberg multibeam vendor format
0144_20141014_150307_Langseth.all.mb58.gz 58.17MB Kongsberg multibeam vendor format
0145_20140920_184337_Langseth.all.mb58.gz 277.78MB Kongsberg multibeam vendor format
0145_20140928_065643_Langseth.all.mb58.gz 20.33MB Kongsberg multibeam vendor format
0145_20141002_041423_Langseth.all.mb58.gz 22.16MB Kongsberg multibeam vendor format
0145_20141009_152217_Langseth.all.mb58.gz 208.80MB Kongsberg multibeam vendor format
0145_20141014_153307_Langseth.all.mb58.gz 57.71MB Kongsberg multibeam vendor format
0146_20140920_191337_Langseth.all.mb58.gz 277.36MB Kongsberg multibeam vendor format
0146_20140928_072639_Langseth.all.mb58.gz 20.50MB Kongsberg multibeam vendor format
0146_20141002_044423_Langseth.all.mb58.gz 22.26MB Kongsberg multibeam vendor format
0146_20141009_155217_Langseth.all.mb58.gz 180.49MB Kongsberg multibeam vendor format
0146_20141014_160308_Langseth.all.mb58.gz 56.37MB Kongsberg multibeam vendor format
0147_20140920_194337_Langseth.all.mb58.gz 274.80MB Kongsberg multibeam vendor format
0147_20140928_075645_Langseth.all.mb58.gz 20.51MB Kongsberg multibeam vendor format
0147_20141002_051425_Langseth.all.mb58.gz 22.37MB Kongsberg multibeam vendor format
0147_20141009_161804_Langseth.all.mb58.gz 226.24MB Kongsberg multibeam vendor format
0147_20141014_163307_Langseth.all.mb58.gz 55.33MB Kongsberg multibeam vendor format
0148_20140920_201337_Langseth.all.mb58.gz 271.49MB Kongsberg multibeam vendor format
0148_20140928_082644_Langseth.all.mb58.gz 20.59MB Kongsberg multibeam vendor format
0148_20141002_054422_Langseth.all.mb58.gz 22.33MB Kongsberg multibeam vendor format
0148_20141009_164804_Langseth.all.mb58.gz 207.86MB Kongsberg multibeam vendor format
0148_20141014_170306_Langseth.all.mb58.gz 54.39MB Kongsberg multibeam vendor format
0149_20140920_204337_Langseth.all.mb58.gz 267.15MB Kongsberg multibeam vendor format
0149_20140928_085643_Langseth.all.mb58.gz 20.73MB Kongsberg multibeam vendor format
0149_20141002_061418_Langseth.all.mb58.gz 22.70MB Kongsberg multibeam vendor format
0149_20141009_171804_Langseth.all.mb58.gz 66.17MB Kongsberg multibeam vendor format
0149_20141014_173307_Langseth.all.mb58.gz 49.61MB Kongsberg multibeam vendor format
0150_20140920_211338_Langseth.all.mb58.gz 265.60MB Kongsberg multibeam vendor format
0150_20140928_092634_Langseth.all.mb58.gz 20.94MB Kongsberg multibeam vendor format
0150_20141002_064425_Langseth.all.mb58.gz 10.50MB Kongsberg multibeam vendor format
0150_20141009_173043_Langseth.all.mb58.gz 209.42MB Kongsberg multibeam vendor format
0150_20141014_180307_Langseth.all.mb58.gz 45.91MB Kongsberg multibeam vendor format
0151_20140920_214338_Langseth.all.mb58.gz 258.47MB Kongsberg multibeam vendor format
0151_20140928_095634_Langseth.all.mb58.gz 21.09MB Kongsberg multibeam vendor format
0151_20141002_070318_Langseth.all.mb58.gz 411.0KB Kongsberg multibeam vendor format
0151_20141009_180043_Langseth.all.mb58.gz 202.18MB Kongsberg multibeam vendor format
0151_20141014_183306_Langseth.all.mb58.gz 49.03MB Kongsberg multibeam vendor format
0152_20140920_221338_Langseth.all.mb58.gz 245.01MB Kongsberg multibeam vendor format
0152_20140928_102645_Langseth.all.mb58.gz 20.87MB Kongsberg multibeam vendor format
0152_20141002_070528_Langseth.all.mb58.gz 22.73MB Kongsberg multibeam vendor format
0152_20141009_183043_Langseth.all.mb58.gz 194.88MB Kongsberg multibeam vendor format
0152_20141014_190306_Langseth.all.mb58.gz 45.53MB Kongsberg multibeam vendor format
0153_20140920_224337_Langseth.all.mb58.gz 239.20MB Kongsberg multibeam vendor format
0153_20140928_105636_Langseth.all.mb58.gz 21.24MB Kongsberg multibeam vendor format
0153_20141002_073519_Langseth.all.mb58.gz 23.11MB Kongsberg multibeam vendor format
0153_20141009_190043_Langseth.all.mb58.gz 187.06MB Kongsberg multibeam vendor format
0153_20141014_193311_Langseth.all.mb58.gz 43.15MB Kongsberg multibeam vendor format
0154_20140920_231337_Langseth.all.mb58.gz 233.79MB Kongsberg multibeam vendor format
0154_20140928_112644_Langseth.all.mb58.gz 21.32MB Kongsberg multibeam vendor format
0154_20141002_080519_Langseth.all.mb58.gz 23.23MB Kongsberg multibeam vendor format
0154_20141009_193043_Langseth.all.mb58.gz 173.63MB Kongsberg multibeam vendor format
0154_20141014_200310_Langseth.all.mb58.gz 40.12MB Kongsberg multibeam vendor format
0155_20140920_234338_Langseth.all.mb58.gz 236.52MB Kongsberg multibeam vendor format
0155_20140928_115634_Langseth.all.mb58.gz 21.54MB Kongsberg multibeam vendor format
0155_20141002_083519_Langseth.all.mb58.gz 23.27MB Kongsberg multibeam vendor format
0155_20141009_200044_Langseth.all.mb58.gz 167.81MB Kongsberg multibeam vendor format
0155_20141014_203306_Langseth.all.mb58.gz 35.39MB Kongsberg multibeam vendor format
0156_20140921_001338_Langseth.all.mb58.gz 245.76MB Kongsberg multibeam vendor format
0156_20140928_122637_Langseth.all.mb58.gz 21.70MB Kongsberg multibeam vendor format
0156_20141002_090520_Langseth.all.mb58.gz 23.50MB Kongsberg multibeam vendor format
0156_20141009_203043_Langseth.all.mb58.gz 158.56MB Kongsberg multibeam vendor format
0156_20141014_210309_Langseth.all.mb58.gz 34.05MB Kongsberg multibeam vendor format
0157_20140921_004338_Langseth.all.mb58.gz 228.11MB Kongsberg multibeam vendor format
0157_20140928_125642_Langseth.all.mb58.gz 21.88MB Kongsberg multibeam vendor format
0157_20141002_093527_Langseth.all.mb58.gz 26.09MB Kongsberg multibeam vendor format
0157_20141009_210043_Langseth.all.mb58.gz 74.95MB Kongsberg multibeam vendor format
0157_20141014_213313_Langseth.all.mb58.gz 32.48MB Kongsberg multibeam vendor format
0158_20140921_011338_Langseth.all.mb58.gz 197.40MB Kongsberg multibeam vendor format
0158_20140928_132640_Langseth.all.mb58.gz 22.00MB Kongsberg multibeam vendor format
0158_20141002_100522_Langseth.all.mb58.gz 32.87MB Kongsberg multibeam vendor format
0158_20141009_213045_Langseth.all.mb58.gz 48.94MB Kongsberg multibeam vendor format
0158_20141014_220307_Langseth.all.mb58.gz 32.16MB Kongsberg multibeam vendor format
0159_20140921_014338_Langseth.all.mb58.gz 168.54MB Kongsberg multibeam vendor format
0159_20140928_135637_Langseth.all.mb58.gz 22.11MB Kongsberg multibeam vendor format
0159_20141002_103519_Langseth.all.mb58.gz 33.50MB Kongsberg multibeam vendor format
0159_20141009_220045_Langseth.all.mb58.gz 44.78MB Kongsberg multibeam vendor format
0159_20141014_223308_Langseth.all.mb58.gz 23.69MB Kongsberg multibeam vendor format
0160_20140921_021338_Langseth.all.mb58.gz 165.90MB Kongsberg multibeam vendor format
0160_20140928_142642_Langseth.all.mb58.gz 22.15MB Kongsberg multibeam vendor format
0160_20141002_110518_Langseth.all.mb58.gz 33.71MB Kongsberg multibeam vendor format
0160_20141009_223049_Langseth.all.mb58.gz 40.18MB Kongsberg multibeam vendor format
0160_20141014_230311_Langseth.all.mb58.gz 22.92MB Kongsberg multibeam vendor format
0161_20140921_024338_Langseth.all.mb58.gz 136.03MB Kongsberg multibeam vendor format
0161_20140928_145638_Langseth.all.mb58.gz 22.65MB Kongsberg multibeam vendor format
0161_20141002_113521_Langseth.all.mb58.gz 33.93MB Kongsberg multibeam vendor format
0161_20141009_230051_Langseth.all.mb58.gz 38.70MB Kongsberg multibeam vendor format
0161_20141014_233311_Langseth.all.mb58.gz 22.74MB Kongsberg multibeam vendor format
0162_20140921_031338_Langseth.all.mb58.gz 103.78MB Kongsberg multibeam vendor format
0162_20140928_152645_Langseth.all.mb58.gz 22.62MB Kongsberg multibeam vendor format
0162_20141002_120519_Langseth.all.mb58.gz 33.93MB Kongsberg multibeam vendor format
0162_20141009_233048_Langseth.all.mb58.gz 35.11MB Kongsberg multibeam vendor format
0162_20141015_000308_Langseth.all.mb58.gz 22.74MB Kongsberg multibeam vendor format
0163_20140921_034338_Langseth.all.mb58.gz 81.38MB Kongsberg multibeam vendor format
0163_20140928_155640_Langseth.all.mb58.gz 22.82MB Kongsberg multibeam vendor format
0163_20141002_123526_Langseth.all.mb58.gz 33.58MB Kongsberg multibeam vendor format
0163_20141010_000048_Langseth.all.mb58.gz 34.22MB Kongsberg multibeam vendor format
0163_20141015_003312_Langseth.all.mb58.gz 22.67MB Kongsberg multibeam vendor format
0164_20140921_041339_Langseth.all.mb58.gz 70.50MB Kongsberg multibeam vendor format
0164_20140928_162641_Langseth.all.mb58.gz 23.46MB Kongsberg multibeam vendor format
0164_20141002_130519_Langseth.all.mb58.gz 34.89MB Kongsberg multibeam vendor format
0164_20141010_003049_Langseth.all.mb58.gz 34.15MB Kongsberg multibeam vendor format
0164_20141015_010313_Langseth.all.mb58.gz 22.39MB Kongsberg multibeam vendor format
0165_20140921_044338_Langseth.all.mb58.gz 62.25MB Kongsberg multibeam vendor format
0165_20140928_165639_Langseth.all.mb58.gz 23.48MB Kongsberg multibeam vendor format
0165_20141002_133527_Langseth.all.mb58.gz 33.98MB Kongsberg multibeam vendor format
0165_20141010_010046_Langseth.all.mb58.gz 33.70MB Kongsberg multibeam vendor format
0165_20141015_013314_Langseth.all.mb58.gz 22.37MB Kongsberg multibeam vendor format
0166_20140921_051338_Langseth.all.mb58.gz 64.71MB Kongsberg multibeam vendor format
0166_20140928_172640_Langseth.all.mb58.gz 23.41MB Kongsberg multibeam vendor format
0166_20141002_140521_Langseth.all.mb58.gz 36.25MB Kongsberg multibeam vendor format
0166_20141010_013047_Langseth.all.mb58.gz 33.60MB Kongsberg multibeam vendor format
0166_20141015_020308_Langseth.all.mb58.gz 22.42MB Kongsberg multibeam vendor format
0167_20140921_054338_Langseth.all.mb58.gz 61.95MB Kongsberg multibeam vendor format
0167_20140928_175640_Langseth.all.mb58.gz 23.51MB Kongsberg multibeam vendor format
0167_20141002_143525_Langseth.all.mb58.gz 39.55MB Kongsberg multibeam vendor format
0167_20141010_020048_Langseth.all.mb58.gz 34.00MB Kongsberg multibeam vendor format
0167_20141015_023311_Langseth.all.mb58.gz 22.22MB Kongsberg multibeam vendor format
0168_20140921_061339_Langseth.all.mb58.gz 62.32MB Kongsberg multibeam vendor format
0168_20140928_182643_Langseth.all.mb58.gz 23.65MB Kongsberg multibeam vendor format
0168_20141002_150522_Langseth.all.mb58.gz 39.92MB Kongsberg multibeam vendor format
0168_20141010_023049_Langseth.all.mb58.gz 33.91MB Kongsberg multibeam vendor format
0168_20141015_030306_Langseth.all.mb58.gz 22.27MB Kongsberg multibeam vendor format
0169_20140921_064340_Langseth.all.mb58.gz 60.98MB Kongsberg multibeam vendor format
0169_20140928_185642_Langseth.all.mb58.gz 31.14MB Kongsberg multibeam vendor format
0169_20141002_153521_Langseth.all.mb58.gz 40.11MB Kongsberg multibeam vendor format
0169_20141010_030049_Langseth.all.mb58.gz 33.80MB Kongsberg multibeam vendor format
0169_20141015_033309_Langseth.all.mb58.gz 22.39MB Kongsberg multibeam vendor format
0170_20140921_071339_Langseth.all.mb58.gz 59.56MB Kongsberg multibeam vendor format
0170_20140928_192639_Langseth.all.mb58.gz 35.03MB Kongsberg multibeam vendor format
0170_20141002_160523_Langseth.all.mb58.gz 35.15MB Kongsberg multibeam vendor format
0170_20141010_033050_Langseth.all.mb58.gz 32.60MB Kongsberg multibeam vendor format
0170_20141015_040315_Langseth.all.mb58.gz 22.26MB Kongsberg multibeam vendor format
0171_20140921_074340_Langseth.all.mb58.gz 57.84MB Kongsberg multibeam vendor format
0171_20140928_195637_Langseth.all.mb58.gz 35.30MB Kongsberg multibeam vendor format
0171_20141002_163523_Langseth.all.mb58.gz 35.39MB Kongsberg multibeam vendor format
0171_20141010_040103_Langseth.all.mb58.gz 2.02MB Kongsberg multibeam vendor format
0171_20141015_043309_Langseth.all.mb58.gz 22.28MB Kongsberg multibeam vendor format
0172_20140921_081339_Langseth.all.mb58.gz 54.77MB Kongsberg multibeam vendor format
0172_20140928_202639_Langseth.all.mb58.gz 35.28MB Kongsberg multibeam vendor format
0172_20141002_170524_Langseth.all.mb58.gz 37.32MB Kongsberg multibeam vendor format
0172_20141015_050310_Langseth.all.mb58.gz 22.33MB Kongsberg multibeam vendor format
0173_20140921_084339_Langseth.all.mb58.gz 50.83MB Kongsberg multibeam vendor format
0173_20140928_205636_Langseth.all.mb58.gz 35.44MB Kongsberg multibeam vendor format
0173_20141002_173521_Langseth.all.mb58.gz 38.33MB Kongsberg multibeam vendor format
0173_20141015_053306_Langseth.all.mb58.gz 22.61MB Kongsberg multibeam vendor format
0174_20140921_091341_Langseth.all.mb58.gz 46.54MB Kongsberg multibeam vendor format
0174_20140928_212635_Langseth.all.mb58.gz 38.10MB Kongsberg multibeam vendor format
0174_20141002_180520_Langseth.all.mb58.gz 36.26MB Kongsberg multibeam vendor format
0174_20141015_060316_Langseth.all.mb58.gz 22.43MB Kongsberg multibeam vendor format
0175_20140921_094341_Langseth.all.mb58.gz 41.84MB Kongsberg multibeam vendor format
0175_20140928_215636_Langseth.all.mb58.gz 40.61MB Kongsberg multibeam vendor format
0175_20141002_183519_Langseth.all.mb58.gz 37.25MB Kongsberg multibeam vendor format
0175_20141015_063306_Langseth.all.mb58.gz 22.70MB Kongsberg multibeam vendor format
0176_20140921_101343_Langseth.all.mb58.gz 40.80MB Kongsberg multibeam vendor format
0176_20140928_222641_Langseth.all.mb58.gz 40.92MB Kongsberg multibeam vendor format
0176_20141002_190524_Langseth.all.mb58.gz 39.27MB Kongsberg multibeam vendor format
0176_20141015_070308_Langseth.all.mb58.gz 22.65MB Kongsberg multibeam vendor format
0177_20140921_104339_Langseth.all.mb58.gz 38.40MB Kongsberg multibeam vendor format
0177_20140928_225638_Langseth.all.mb58.gz 41.65MB Kongsberg multibeam vendor format
0177_20141002_193520_Langseth.all.mb58.gz 37.79MB Kongsberg multibeam vendor format
0177_20141015_073312_Langseth.all.mb58.gz 22.71MB Kongsberg multibeam vendor format
0178_20140921_111342_Langseth.all.mb58.gz 31.94MB Kongsberg multibeam vendor format
0178_20140928_232639_Langseth.all.mb58.gz 43.09MB Kongsberg multibeam vendor format
0178_20141002_200523_Langseth.all.mb58.gz 36.23MB Kongsberg multibeam vendor format
0178_20141015_080315_Langseth.all.mb58.gz 22.64MB Kongsberg multibeam vendor format
0179_20140921_114340_Langseth.all.mb58.gz 28.14MB Kongsberg multibeam vendor format
0179_20140928_235636_Langseth.all.mb58.gz 45.64MB Kongsberg multibeam vendor format
0179_20141002_203525_Langseth.all.mb58.gz 36.09MB Kongsberg multibeam vendor format
0179_20141015_083317_Langseth.all.mb58.gz 22.37MB Kongsberg multibeam vendor format
0180_20140921_121340_Langseth.all.mb58.gz 26.79MB Kongsberg multibeam vendor format
0180_20140929_002637_Langseth.all.mb58.gz 47.13MB Kongsberg multibeam vendor format
0180_20141002_210519_Langseth.all.mb58.gz 11.77MB Kongsberg multibeam vendor format
0180_20141015_090317_Langseth.all.mb58.gz 22.50MB Kongsberg multibeam vendor format
0181_20140921_124341_Langseth.all.mb58.gz 28.61MB Kongsberg multibeam vendor format
0181_20140929_005637_Langseth.all.mb58.gz 48.48MB Kongsberg multibeam vendor format
0181_20141002_214019_Langseth.all.mb58.gz 39.42MB Kongsberg multibeam vendor format
0181_20141015_093313_Langseth.all.mb58.gz 22.48MB Kongsberg multibeam vendor format
0182_20140921_131343_Langseth.all.mb58.gz 30.39MB Kongsberg multibeam vendor format
0182_20140929_012636_Langseth.all.mb58.gz 49.63MB Kongsberg multibeam vendor format
0182_20141002_221017_Langseth.all.mb58.gz 40.00MB Kongsberg multibeam vendor format
0182_20141015_100313_Langseth.all.mb58.gz 22.40MB Kongsberg multibeam vendor format
0183_20140921_134347_Langseth.all.mb58.gz 5.41MB Kongsberg multibeam vendor format
0183_20140929_015636_Langseth.all.mb58.gz 51.26MB Kongsberg multibeam vendor format
0183_20141002_224019_Langseth.all.mb58.gz 42.49MB Kongsberg multibeam vendor format
0183_20141015_103309_Langseth.all.mb58.gz 22.60MB Kongsberg multibeam vendor format
0184_20140921_135616_Langseth.all.mb58.gz 30.71MB Kongsberg multibeam vendor format
0184_20140929_022637_Langseth.all.mb58.gz 52.33MB Kongsberg multibeam vendor format
0184_20141002_231021_Langseth.all.mb58.gz 43.85MB Kongsberg multibeam vendor format
0184_20141015_110317_Langseth.all.mb58.gz 22.64MB Kongsberg multibeam vendor format
0185_20140921_142610_Langseth.all.mb58.gz 31.09MB Kongsberg multibeam vendor format
0185_20140929_025636_Langseth.all.mb58.gz 53.20MB Kongsberg multibeam vendor format
0185_20141002_234019_Langseth.all.mb58.gz 47.10MB Kongsberg multibeam vendor format
0185_20141015_113311_Langseth.all.mb58.gz 22.68MB Kongsberg multibeam vendor format
0186_20140921_145611_Langseth.all.mb58.gz 31.03MB Kongsberg multibeam vendor format
0186_20140929_032637_Langseth.all.mb58.gz 33.04MB Kongsberg multibeam vendor format
0186_20141003_001019_Langseth.all.mb58.gz 69.94MB Kongsberg multibeam vendor format
0186_20141015_120312_Langseth.all.mb58.gz 22.65MB Kongsberg multibeam vendor format
0187_20140921_152611_Langseth.all.mb58.gz 30.18MB Kongsberg multibeam vendor format
0187_20140929_034525_Langseth.all.mb58.gz 52.60MB Kongsberg multibeam vendor format
0187_20141003_004017_Langseth.all.mb58.gz 154.10MB Kongsberg multibeam vendor format
0187_20141015_123310_Langseth.all.mb58.gz 22.82MB Kongsberg multibeam vendor format
0188_20140921_155606_Langseth.all.mb58.gz 13.66MB Kongsberg multibeam vendor format
0188_20140929_041510_Langseth.all.mb58.gz 54.36MB Kongsberg multibeam vendor format
0188_20141003_011017_Langseth.all.mb58.gz 18.06MB Kongsberg multibeam vendor format
0188_20141015_130307_Langseth.all.mb58.gz 22.75MB Kongsberg multibeam vendor format
0189_20140921_161749_Langseth.all.mb58.gz 28.44MB Kongsberg multibeam vendor format
0189_20140929_044509_Langseth.all.mb58.gz 54.69MB Kongsberg multibeam vendor format
0189_20141003_011343_Langseth.all.mb58.gz 2.76MB Kongsberg multibeam vendor format
0189_20141015_133312_Langseth.all.mb58.gz 22.77MB Kongsberg multibeam vendor format
0190_20140921_164739_Langseth.all.mb58.gz 28.77MB Kongsberg multibeam vendor format
0190_20140929_051511_Langseth.all.mb58.gz 188.5KB Kongsberg multibeam vendor format
0190_20141003_011631_Langseth.all.mb58.gz 158.37MB Kongsberg multibeam vendor format
0190_20141015_140316_Langseth.all.mb58.gz 22.87MB Kongsberg multibeam vendor format
0191_20140921_171740_Langseth.all.mb58.gz 28.83MB Kongsberg multibeam vendor format
0191_20141003_014622_Langseth.all.mb58.gz 165.61MB Kongsberg multibeam vendor format
0191_20141015_143317_Langseth.all.mb58.gz 22.54MB Kongsberg multibeam vendor format
0192_20140921_174744_Langseth.all.mb58.gz 28.41MB Kongsberg multibeam vendor format
0192_20141003_021622_Langseth.all.mb58.gz 165.59MB Kongsberg multibeam vendor format
0192_20141015_150310_Langseth.all.mb58.gz 22.39MB Kongsberg multibeam vendor format
0193_20140921_181735_Langseth.all.mb58.gz 28.72MB Kongsberg multibeam vendor format
0193_20141003_024622_Langseth.all.mb58.gz 186.75MB Kongsberg multibeam vendor format
0193_20141015_153309_Langseth.all.mb58.gz 22.96MB Kongsberg multibeam vendor format
0194_20140921_184748_Langseth.all.mb58.gz 28.46MB Kongsberg multibeam vendor format
0194_20141003_031622_Langseth.all.mb58.gz 190.20MB Kongsberg multibeam vendor format
0194_20141015_160310_Langseth.all.mb58.gz 23.04MB Kongsberg multibeam vendor format
0195_20140921_191742_Langseth.all.mb58.gz 28.38MB Kongsberg multibeam vendor format
0195_20141003_034622_Langseth.all.mb58.gz 199.43MB Kongsberg multibeam vendor format
0195_20141015_163315_Langseth.all.mb58.gz 22.86MB Kongsberg multibeam vendor format
0196_20140921_194737_Langseth.all.mb58.gz 28.55MB Kongsberg multibeam vendor format
0196_20141003_041622_Langseth.all.mb58.gz 236.87MB Kongsberg multibeam vendor format
0196_20141015_170310_Langseth.all.mb58.gz 23.04MB Kongsberg multibeam vendor format
0197_20140921_201742_Langseth.all.mb58.gz 28.16MB Kongsberg multibeam vendor format
0197_20141003_044622_Langseth.all.mb58.gz 226.47MB Kongsberg multibeam vendor format
0197_20141015_173307_Langseth.all.mb58.gz 23.25MB Kongsberg multibeam vendor format
0198_20140921_204740_Langseth.all.mb58.gz 27.94MB Kongsberg multibeam vendor format
0198_20141003_051622_Langseth.all.mb58.gz 248.36MB Kongsberg multibeam vendor format
0198_20141015_180315_Langseth.all.mb58.gz 23.16MB Kongsberg multibeam vendor format
0199_20140921_211739_Langseth.all.mb58.gz 27.01MB Kongsberg multibeam vendor format
0199_20141003_054622_Langseth.all.mb58.gz 235.97MB Kongsberg multibeam vendor format
0199_20141015_183316_Langseth.all.mb58.gz 4.67MB Kongsberg multibeam vendor format
0200_20140921_214747_Langseth.all.mb58.gz 26.62MB Kongsberg multibeam vendor format
0200_20141003_061622_Langseth.all.mb58.gz 232.60MB Kongsberg multibeam vendor format
0200_20141015_184620_Langseth.all.mb58.gz 23.22MB Kongsberg multibeam vendor format
0201_20140921_221747_Langseth.all.mb58.gz 26.47MB Kongsberg multibeam vendor format
0201_20141003_064622_Langseth.all.mb58.gz 216.48MB Kongsberg multibeam vendor format
0201_20141015_191629_Langseth.all.mb58.gz 4.12MB Kongsberg multibeam vendor format
0202_20140921_224741_Langseth.all.mb58.gz 26.41MB Kongsberg multibeam vendor format
0202_20141003_071622_Langseth.all.mb58.gz 181.39MB Kongsberg multibeam vendor format
0202_20141015_192433_Langseth.all.mb58.gz 23.30MB Kongsberg multibeam vendor format
0203_20140921_231738_Langseth.all.mb58.gz 26.51MB Kongsberg multibeam vendor format
0203_20141003_074623_Langseth.all.mb58.gz 161.68MB Kongsberg multibeam vendor format
0203_20141015_195433_Langseth.all.mb58.gz 23.44MB Kongsberg multibeam vendor format
0204_20140921_234745_Langseth.all.mb58.gz 26.33MB Kongsberg multibeam vendor format
0204_20141003_081623_Langseth.all.mb58.gz 167.20MB Kongsberg multibeam vendor format
0204_20141015_202436_Langseth.all.mb58.gz 23.50MB Kongsberg multibeam vendor format
0205_20140922_001745_Langseth.all.mb58.gz 26.17MB Kongsberg multibeam vendor format
0205_20141003_084623_Langseth.all.mb58.gz 141.28MB Kongsberg multibeam vendor format
0205_20141015_205431_Langseth.all.mb58.gz 32.60MB Kongsberg multibeam vendor format
0206_20140922_004740_Langseth.all.mb58.gz 26.21MB Kongsberg multibeam vendor format
0206_20141003_091624_Langseth.all.mb58.gz 51.07MB Kongsberg multibeam vendor format
0206_20141015_212431_Langseth.all.mb58.gz 33.70MB Kongsberg multibeam vendor format
0207_20140922_011741_Langseth.all.mb58.gz 26.22MB Kongsberg multibeam vendor format
0207_20141003_094623_Langseth.all.mb58.gz 44.39MB Kongsberg multibeam vendor format
0207_20141015_215426_Langseth.all.mb58.gz 26.62MB Kongsberg multibeam vendor format
0208_20140922_014742_Langseth.all.mb58.gz 25.99MB Kongsberg multibeam vendor format
0208_20141003_101623_Langseth.all.mb58.gz 42.70MB Kongsberg multibeam vendor format
0208_20141015_222431_Langseth.all.mb58.gz 34.28MB Kongsberg multibeam vendor format
0209_20140922_021736_Langseth.all.mb58.gz 25.80MB Kongsberg multibeam vendor format
0209_20141003_104629_Langseth.all.mb58.gz 39.95MB Kongsberg multibeam vendor format
0209_20141015_225433_Langseth.all.mb58.gz 33.99MB Kongsberg multibeam vendor format
0210_20140922_024745_Langseth.all.mb58.gz 25.13MB Kongsberg multibeam vendor format
0210_20141003_111627_Langseth.all.mb58.gz 38.33MB Kongsberg multibeam vendor format
0210_20141015_232427_Langseth.all.mb58.gz 33.99MB Kongsberg multibeam vendor format
0211_20140922_031743_Langseth.all.mb58.gz 24.99MB Kongsberg multibeam vendor format
0211_20141003_114624_Langseth.all.mb58.gz 35.62MB Kongsberg multibeam vendor format
0211_20141015_235426_Langseth.all.mb58.gz 34.39MB Kongsberg multibeam vendor format
0212_20140922_034748_Langseth.all.mb58.gz 24.52MB Kongsberg multibeam vendor format
0212_20141003_121626_Langseth.all.mb58.gz 34.12MB Kongsberg multibeam vendor format
0212_20141016_002431_Langseth.all.mb58.gz 34.39MB Kongsberg multibeam vendor format
0213_20140922_041735_Langseth.all.mb58.gz 24.69MB Kongsberg multibeam vendor format
0213_20141003_124631_Langseth.all.mb58.gz 33.43MB Kongsberg multibeam vendor format
0213_20141016_005427_Langseth.all.mb58.gz 33.82MB Kongsberg multibeam vendor format
0214_20140922_044735_Langseth.all.mb58.gz 24.88MB Kongsberg multibeam vendor format
0214_20141003_131628_Langseth.all.mb58.gz 34.06MB Kongsberg multibeam vendor format
0214_20141016_012426_Langseth.all.mb58.gz 33.95MB Kongsberg multibeam vendor format
0215_20140922_051748_Langseth.all.mb58.gz 24.62MB Kongsberg multibeam vendor format
0215_20141003_134623_Langseth.all.mb58.gz 33.93MB Kongsberg multibeam vendor format
0215_20141016_015428_Langseth.all.mb58.gz 39.57MB Kongsberg multibeam vendor format
0216_20140922_054746_Langseth.all.mb58.gz 8.04MB Kongsberg multibeam vendor format
0216_20141003_141630_Langseth.all.mb58.gz 33.21MB Kongsberg multibeam vendor format
0216_20141016_022427_Langseth.all.mb58.gz 40.22MB Kongsberg multibeam vendor format
0217_20141003_144623_Langseth.all.mb58.gz 33.41MB Kongsberg multibeam vendor format
0217_20141016_025426_Langseth.all.mb58.gz 50.10MB Kongsberg multibeam vendor format
0218_20140922_055959_Langseth.all.mb58.gz 5.68MB Kongsberg multibeam vendor format
0218_20141003_151629_Langseth.all.mb58.gz 32.19MB Kongsberg multibeam vendor format
0218_20141016_032427_Langseth.all.mb58.gz 156.90MB Kongsberg multibeam vendor format
0219_20140922_061056_Langseth.all.mb58.gz 4.76MB Kongsberg multibeam vendor format
0219_20141003_154626_Langseth.all.mb58.gz 23.44MB Kongsberg multibeam vendor format
0219_20141016_035426_Langseth.all.mb58.gz 159.65MB Kongsberg multibeam vendor format
0220_20140922_061724_Langseth.all.mb58.gz 12.03MB Kongsberg multibeam vendor format
0220_20141003_161623_Langseth.all.mb58.gz 23.43MB Kongsberg multibeam vendor format
0220_20141016_042426_Langseth.all.mb58.gz 166.54MB Kongsberg multibeam vendor format
0221_20141003_164629_Langseth.all.mb58.gz 23.22MB Kongsberg multibeam vendor format
0221_20141016_045426_Langseth.all.mb58.gz 164.96MB Kongsberg multibeam vendor format
0222_20141003_171627_Langseth.all.mb58.gz 23.20MB Kongsberg multibeam vendor format
0222_20141016_052426_Langseth.all.mb58.gz 165.09MB Kongsberg multibeam vendor format
0223_20141003_174627_Langseth.all.mb58.gz 23.13MB Kongsberg multibeam vendor format
0223_20141016_055426_Langseth.all.mb58.gz 164.45MB Kongsberg multibeam vendor format
0224_20141003_181634_Langseth.all.mb58.gz 22.88MB Kongsberg multibeam vendor format
0224_20141016_062426_Langseth.all.mb58.gz 164.73MB Kongsberg multibeam vendor format
0225_20141003_184629_Langseth.all.mb58.gz 22.57MB Kongsberg multibeam vendor format
0225_20141016_065426_Langseth.all.mb58.gz 170.73MB Kongsberg multibeam vendor format
0226_20141003_191623_Langseth.all.mb58.gz 22.37MB Kongsberg multibeam vendor format
0226_20141016_072426_Langseth.all.mb58.gz 198.99MB Kongsberg multibeam vendor format
0227_20141003_194624_Langseth.all.mb58.gz 22.34MB Kongsberg multibeam vendor format
0227_20141016_075426_Langseth.all.mb58.gz 207.68MB Kongsberg multibeam vendor format
0228_20141003_201625_Langseth.all.mb58.gz 22.19MB Kongsberg multibeam vendor format
0228_20141016_082426_Langseth.all.mb58.gz 194.65MB Kongsberg multibeam vendor format
0229_20141003_204624_Langseth.all.mb58.gz 21.97MB Kongsberg multibeam vendor format
0229_20141016_085426_Langseth.all.mb58.gz 183.16MB Kongsberg multibeam vendor format
0230_20141003_211634_Langseth.all.mb58.gz 21.68MB Kongsberg multibeam vendor format
0230_20141016_092426_Langseth.all.mb58.gz 168.01MB Kongsberg multibeam vendor format
0231_20141003_214627_Langseth.all.mb58.gz 21.71MB Kongsberg multibeam vendor format
0231_20141016_095426_Langseth.all.mb58.gz 164.87MB Kongsberg multibeam vendor format
0232_20141003_221634_Langseth.all.mb58.gz 21.42MB Kongsberg multibeam vendor format
0232_20141016_102426_Langseth.all.mb58.gz 167.27MB Kongsberg multibeam vendor format
0233_20141003_224627_Langseth.all.mb58.gz 21.49MB Kongsberg multibeam vendor format
0233_20141016_105426_Langseth.all.mb58.gz 167.18MB Kongsberg multibeam vendor format
0234_20141003_231633_Langseth.all.mb58.gz 21.26MB Kongsberg multibeam vendor format
0234_20141016_112426_Langseth.all.mb58.gz 166.93MB Kongsberg multibeam vendor format
0235_20141003_234630_Langseth.all.mb58.gz 21.14MB Kongsberg multibeam vendor format
0235_20141016_115426_Langseth.all.mb58.gz 166.61MB Kongsberg multibeam vendor format
0236_20141004_001625_Langseth.all.mb58.gz 21.25MB Kongsberg multibeam vendor format
0236_20141016_122426_Langseth.all.mb58.gz 165.80MB Kongsberg multibeam vendor format
0237_20141004_004636_Langseth.all.mb58.gz 20.90MB Kongsberg multibeam vendor format
0237_20141016_125427_Langseth.all.mb58.gz 165.94MB Kongsberg multibeam vendor format
0238_20141004_011627_Langseth.all.mb58.gz 20.79MB Kongsberg multibeam vendor format
0238_20141016_132426_Langseth.all.mb58.gz 166.25MB Kongsberg multibeam vendor format
0239_20141004_014627_Langseth.all.mb58.gz 20.63MB Kongsberg multibeam vendor format
0239_20141016_135426_Langseth.all.mb58.gz 166.76MB Kongsberg multibeam vendor format
0240_20141004_021629_Langseth.all.mb58.gz 20.57MB Kongsberg multibeam vendor format
0240_20141016_142426_Langseth.all.mb58.gz 162.70MB Kongsberg multibeam vendor format
0241_20141004_024624_Langseth.all.mb58.gz 20.70MB Kongsberg multibeam vendor format
0241_20141016_145427_Langseth.all.mb58.gz 129.03MB Kongsberg multibeam vendor format
0242_20141004_031637_Langseth.all.mb58.gz 20.43MB Kongsberg multibeam vendor format
0242_20141016_152427_Langseth.all.mb58.gz 73.36MB Kongsberg multibeam vendor format
0243_20141004_034625_Langseth.all.mb58.gz 20.46MB Kongsberg multibeam vendor format
0243_20141016_155428_Langseth.all.mb58.gz 48.56MB Kongsberg multibeam vendor format
0244_20141004_041628_Langseth.all.mb58.gz 20.49MB Kongsberg multibeam vendor format
0244_20141016_162431_Langseth.all.mb58.gz 36.59MB Kongsberg multibeam vendor format
0245_20141004_044635_Langseth.all.mb58.gz 20.15MB Kongsberg multibeam vendor format
0245_20141016_165429_Langseth.all.mb58.gz 33.25MB Kongsberg multibeam vendor format
0246_20141004_051624_Langseth.all.mb58.gz 20.26MB Kongsberg multibeam vendor format
0246_20141016_172430_Langseth.all.mb58.gz 23.55MB Kongsberg multibeam vendor format
0247_20141004_054632_Langseth.all.mb58.gz 20.12MB Kongsberg multibeam vendor format
0247_20141016_175433_Langseth.all.mb58.gz 23.46MB Kongsberg multibeam vendor format
0248_20141004_061637_Langseth.all.mb58.gz 19.91MB Kongsberg multibeam vendor format
0248_20141016_182437_Langseth.all.mb58.gz 23.25MB Kongsberg multibeam vendor format
0249_20141004_064625_Langseth.all.mb58.gz 20.04MB Kongsberg multibeam vendor format
0249_20141016_185432_Langseth.all.mb58.gz 23.14MB Kongsberg multibeam vendor format
0250_20141004_071628_Langseth.all.mb58.gz 20.10MB Kongsberg multibeam vendor format
0250_20141016_192429_Langseth.all.mb58.gz 23.06MB Kongsberg multibeam vendor format
0251_20141004_074639_Langseth.all.mb58.gz 19.87MB Kongsberg multibeam vendor format
0251_20141016_195430_Langseth.all.mb58.gz 18.93MB Kongsberg multibeam vendor format
0252_20141004_081632_Langseth.all.mb58.gz 19.88MB Kongsberg multibeam vendor format
0252_20141016_202652_Langseth.all.mb58.gz 22.70MB Kongsberg multibeam vendor format
0253_20141004_084625_Langseth.all.mb58.gz 19.98MB Kongsberg multibeam vendor format
0253_20141016_205657_Langseth.all.mb58.gz 22.53MB Kongsberg multibeam vendor format
0254_20141004_091634_Langseth.all.mb58.gz 19.79MB Kongsberg multibeam vendor format
0254_20141016_212657_Langseth.all.mb58.gz 22.28MB Kongsberg multibeam vendor format
0255_20141004_094632_Langseth.all.mb58.gz 19.70MB Kongsberg multibeam vendor format
0255_20141016_215656_Langseth.all.mb58.gz 22.21MB Kongsberg multibeam vendor format
0256_20141004_101630_Langseth.all.mb58.gz 19.78MB Kongsberg multibeam vendor format
0256_20141016_222653_Langseth.all.mb58.gz 22.15MB Kongsberg multibeam vendor format
0257_20141004_104632_Langseth.all.mb58.gz 19.83MB Kongsberg multibeam vendor format
0257_20141016_225654_Langseth.all.mb58.gz 22.00MB Kongsberg multibeam vendor format
0258_20141004_111632_Langseth.all.mb58.gz 14.97MB Kongsberg multibeam vendor format
0258_20141016_232647_Langseth.all.mb58.gz 22.07MB Kongsberg multibeam vendor format
0259_20141004_114816_Langseth.all.mb58.gz 19.80MB Kongsberg multibeam vendor format
0259_20141016_235657_Langseth.all.mb58.gz 21.86MB Kongsberg multibeam vendor format
0260_20141004_121826_Langseth.all.mb58.gz 19.67MB Kongsberg multibeam vendor format
0260_20141017_002658_Langseth.all.mb58.gz 21.69MB Kongsberg multibeam vendor format
0261_20141004_124820_Langseth.all.mb58.gz 19.79MB Kongsberg multibeam vendor format
0261_20141017_005657_Langseth.all.mb58.gz 21.66MB Kongsberg multibeam vendor format
0262_20141004_131820_Langseth.all.mb58.gz 19.73MB Kongsberg multibeam vendor format
0262_20141017_012656_Langseth.all.mb58.gz 21.50MB Kongsberg multibeam vendor format
0263_20141004_134819_Langseth.all.mb58.gz 19.89MB Kongsberg multibeam vendor format
0263_20141017_015658_Langseth.all.mb58.gz 21.38MB Kongsberg multibeam vendor format
0264_20141004_141830_Langseth.all.mb58.gz 19.57MB Kongsberg multibeam vendor format
0264_20141017_022650_Langseth.all.mb58.gz 21.23MB Kongsberg multibeam vendor format
0265_20141004_144817_Langseth.all.mb58.gz 19.72MB Kongsberg multibeam vendor format
0265_20141017_025654_Langseth.all.mb58.gz 21.36MB Kongsberg multibeam vendor format
0266_20141004_151818_Langseth.all.mb58.gz 19.80MB Kongsberg multibeam vendor format
0266_20141017_032656_Langseth.all.mb58.gz 21.27MB Kongsberg multibeam vendor format
0267_20141004_154824_Langseth.all.mb58.gz 19.65MB Kongsberg multibeam vendor format
0267_20141017_035653_Langseth.all.mb58.gz 21.21MB Kongsberg multibeam vendor format
0268_20141004_161821_Langseth.all.mb58.gz 19.72MB Kongsberg multibeam vendor format
0268_20141017_042652_Langseth.all.mb58.gz 21.05MB Kongsberg multibeam vendor format
0269_20141004_164827_Langseth.all.mb58.gz 19.61MB Kongsberg multibeam vendor format
0269_20141017_045658_Langseth.all.mb58.gz 20.42MB Kongsberg multibeam vendor format
0270_20141004_171823_Langseth.all.mb58.gz 19.54MB Kongsberg multibeam vendor format
0270_20141017_052656_Langseth.all.mb58.gz 20.62MB Kongsberg multibeam vendor format
0271_20141004_174819_Langseth.all.mb58.gz 19.77MB Kongsberg multibeam vendor format
0271_20141017_055653_Langseth.all.mb58.gz 20.77MB Kongsberg multibeam vendor format
0272_20141004_181827_Langseth.all.mb58.gz 19.60MB Kongsberg multibeam vendor format
0272_20141017_062653_Langseth.all.mb58.gz 20.62MB Kongsberg multibeam vendor format
0273_20141004_184819_Langseth.all.mb58.gz 19.55MB Kongsberg multibeam vendor format
0273_20141017_065654_Langseth.all.mb58.gz 20.36MB Kongsberg multibeam vendor format
0274_20141004_191819_Langseth.all.mb58.gz 19.55MB Kongsberg multibeam vendor format
0274_20141017_072648_Langseth.all.mb58.gz 20.30MB Kongsberg multibeam vendor format
0275_20141004_194822_Langseth.all.mb58.gz 19.50MB Kongsberg multibeam vendor format
0275_20141017_075700_Langseth.all.mb58.gz 20.21MB Kongsberg multibeam vendor format
0276_20141004_201827_Langseth.all.mb58.gz 19.39MB Kongsberg multibeam vendor format
0276_20141017_082652_Langseth.all.mb58.gz 19.01MB Kongsberg multibeam vendor format
0277_20141004_204828_Langseth.all.mb58.gz 19.39MB Kongsberg multibeam vendor format
0277_20141017_085652_Langseth.all.mb58.gz 20.15MB Kongsberg multibeam vendor format
0278_20141004_211820_Langseth.all.mb58.gz 19.57MB Kongsberg multibeam vendor format
0278_20141017_092649_Langseth.all.mb58.gz 20.21MB Kongsberg multibeam vendor format
0279_20141004_214826_Langseth.all.mb58.gz 19.54MB Kongsberg multibeam vendor format
0279_20141017_095655_Langseth.all.mb58.gz 19.85MB Kongsberg multibeam vendor format
0280_20141004_221819_Langseth.all.mb58.gz 19.67MB Kongsberg multibeam vendor format
0280_20141017_102659_Langseth.all.mb58.gz 19.77MB Kongsberg multibeam vendor format
0281_20141004_224828_Langseth.all.mb58.gz 19.54MB Kongsberg multibeam vendor format
0281_20141017_105653_Langseth.all.mb58.gz 20.26MB Kongsberg multibeam vendor format
0282_20141004_231819_Langseth.all.mb58.gz 19.85MB Kongsberg multibeam vendor format
0282_20141017_112649_Langseth.all.mb58.gz 20.10MB Kongsberg multibeam vendor format
0283_20141004_234826_Langseth.all.mb58.gz 19.67MB Kongsberg multibeam vendor format
0283_20141017_115653_Langseth.all.mb58.gz 20.15MB Kongsberg multibeam vendor format
0284_20141005_001825_Langseth.all.mb58.gz 19.75MB Kongsberg multibeam vendor format
0284_20141017_122700_Langseth.all.mb58.gz 20.22MB Kongsberg multibeam vendor format
0285_20141005_004825_Langseth.all.mb58.gz 19.80MB Kongsberg multibeam vendor format
0285_20141017_125653_Langseth.all.mb58.gz 19.49MB Kongsberg multibeam vendor format
0286_20141005_011822_Langseth.all.mb58.gz 19.74MB Kongsberg multibeam vendor format
0287_20141005_014826_Langseth.all.mb58.gz 19.70MB Kongsberg multibeam vendor format
0288_20141005_021825_Langseth.all.mb58.gz 19.69MB Kongsberg multibeam vendor format
0289_20141005_024826_Langseth.all.mb58.gz 19.81MB Kongsberg multibeam vendor format
0290_20141005_031819_Langseth.all.mb58.gz 19.89MB Kongsberg multibeam vendor format
0291_20141005_034819_Langseth.all.mb58.gz 19.87MB Kongsberg multibeam vendor format
0292_20141005_041827_Langseth.all.mb58.gz 19.83MB Kongsberg multibeam vendor format
0293_20141005_044827_Langseth.all.mb58.gz 19.74MB Kongsberg multibeam vendor format
0294_20141005_051819_Langseth.all.mb58.gz 19.40MB Kongsberg multibeam vendor format
0295_20141005_054829_Langseth.all.mb58.gz 19.39MB Kongsberg multibeam vendor format
0296_20141005_061818_Langseth.all.mb58.gz 19.58MB Kongsberg multibeam vendor format
0297_20141005_064821_Langseth.all.mb58.gz 19.42MB Kongsberg multibeam vendor format
0298_20141005_071825_Langseth.all.mb58.gz 19.44MB Kongsberg multibeam vendor format
0299_20141005_074818_Langseth.all.mb58.gz 19.50MB Kongsberg multibeam vendor format
0300_20141005_081819_Langseth.all.mb58.gz 19.58MB Kongsberg multibeam vendor format
0301_20141005_084819_Langseth.all.mb58.gz 19.53MB Kongsberg multibeam vendor format
0302_20141005_091820_Langseth.all.mb58.gz 19.50MB Kongsberg multibeam vendor format
0303_20141005_094817_Langseth.all.mb58.gz 19.76MB Kongsberg multibeam vendor format
0304_20141005_101829_Langseth.all.mb58.gz 19.50MB Kongsberg multibeam vendor format
0305_20141005_104829_Langseth.all.mb58.gz 19.29MB Kongsberg multibeam vendor format
0306_20141005_111816_Langseth.all.mb58.gz 19.57MB Kongsberg multibeam vendor format
0307_20141005_114821_Langseth.all.mb58.gz 19.14MB Kongsberg multibeam vendor format
0308_20141005_121820_Langseth.all.mb58.gz 19.33MB Kongsberg multibeam vendor format
0309_20141005_124830_Langseth.all.mb58.gz 19.28MB Kongsberg multibeam vendor format
0310_20141005_131818_Langseth.all.mb58.gz 19.11MB Kongsberg multibeam vendor format
0311_20141005_134829_Langseth.all.mb58.gz 18.89MB Kongsberg multibeam vendor format
0312_20141005_141829_Langseth.all.mb58.gz 19.06MB Kongsberg multibeam vendor format
0313_20141005_144820_Langseth.all.mb58.gz 19.40MB Kongsberg multibeam vendor format
0314_20141005_151828_Langseth.all.mb58.gz 19.34MB Kongsberg multibeam vendor format
0315_20141005_154822_Langseth.all.mb58.gz 19.55MB Kongsberg multibeam vendor format
0316_20141005_161822_Langseth.all.mb58.gz 19.67MB Kongsberg multibeam vendor format
0317_20141005_164827_Langseth.all.mb58.gz 17.47MB Kongsberg multibeam vendor format
0318_20141005_172633_Langseth.all.mb58.gz 19.78MB Kongsberg multibeam vendor format
0319_20141005_175638_Langseth.all.mb58.gz 19.76MB Kongsberg multibeam vendor format
0320_20141005_182638_Langseth.all.mb58.gz 19.71MB Kongsberg multibeam vendor format
0321_20141005_185642_Langseth.all.mb58.gz 19.53MB Kongsberg multibeam vendor format
0322_20141005_192635_Langseth.all.mb58.gz 19.77MB Kongsberg multibeam vendor format
0323_20141005_195639_Langseth.all.mb58.gz 19.51MB Kongsberg multibeam vendor format
0324_20141005_202639_Langseth.all.mb58.gz 19.52MB Kongsberg multibeam vendor format
0325_20141005_205637_Langseth.all.mb58.gz 19.56MB Kongsberg multibeam vendor format
0326_20141005_212633_Langseth.all.mb58.gz 19.70MB Kongsberg multibeam vendor format
0327_20141005_215633_Langseth.all.mb58.gz 19.68MB Kongsberg multibeam vendor format
0328_20141005_222631_Langseth.all.mb58.gz 19.71MB Kongsberg multibeam vendor format
0329_20141005_225634_Langseth.all.mb58.gz 19.77MB Kongsberg multibeam vendor format
0330_20141005_232643_Langseth.all.mb58.gz 19.51MB Kongsberg multibeam vendor format
0331_20141005_235633_Langseth.all.mb58.gz 19.91MB Kongsberg multibeam vendor format
0332_20141006_002642_Langseth.all.mb58.gz 19.99MB Kongsberg multibeam vendor format
0333_20141006_005635_Langseth.all.mb58.gz 20.08MB Kongsberg multibeam vendor format
0334_20141006_012636_Langseth.all.mb58.gz 20.07MB Kongsberg multibeam vendor format
0335_20141006_015643_Langseth.all.mb58.gz 19.90MB Kongsberg multibeam vendor format
0336_20141006_022634_Langseth.all.mb58.gz 20.26MB Kongsberg multibeam vendor format
0337_20141006_025639_Langseth.all.mb58.gz 20.29MB Kongsberg multibeam vendor format
0338_20141006_032641_Langseth.all.mb58.gz 20.28MB Kongsberg multibeam vendor format
0339_20141006_035631_Langseth.all.mb58.gz 20.51MB Kongsberg multibeam vendor format
0340_20141006_042633_Langseth.all.mb58.gz 20.45MB Kongsberg multibeam vendor format
0341_20141006_045633_Langseth.all.mb58.gz 20.50MB Kongsberg multibeam vendor format
0342_20141006_052633_Langseth.all.mb58.gz 20.55MB Kongsberg multibeam vendor format
0343_20141006_055635_Langseth.all.mb58.gz 20.63MB Kongsberg multibeam vendor format
0344_20141006_062634_Langseth.all.mb58.gz 20.76MB Kongsberg multibeam vendor format
0345_20141006_065632_Langseth.all.mb58.gz 21.12MB Kongsberg multibeam vendor format
0346_20141006_072637_Langseth.all.mb58.gz 21.25MB Kongsberg multibeam vendor format
0347_20141006_075640_Langseth.all.mb58.gz 21.29MB Kongsberg multibeam vendor format
0348_20141006_082636_Langseth.all.mb58.gz 21.39MB Kongsberg multibeam vendor format
0349_20141006_085636_Langseth.all.mb58.gz 21.46MB Kongsberg multibeam vendor format
0350_20141006_092636_Langseth.all.mb58.gz 21.52MB Kongsberg multibeam vendor format
0351_20141006_095641_Langseth.all.mb58.gz 21.50MB Kongsberg multibeam vendor format
0352_20141006_102631_Langseth.all.mb58.gz 21.79MB Kongsberg multibeam vendor format
0353_20141006_105631_Langseth.all.mb58.gz 22.11MB Kongsberg multibeam vendor format
0354_20141006_112641_Langseth.all.mb58.gz 22.14MB Kongsberg multibeam vendor format
0355_20141006_115630_Langseth.all.mb58.gz 22.48MB Kongsberg multibeam vendor format
0356_20141006_122638_Langseth.all.mb58.gz 22.44MB Kongsberg multibeam vendor format
0357_20141006_125638_Langseth.all.mb58.gz 22.27MB Kongsberg multibeam vendor format
0358_20141006_132636_Langseth.all.mb58.gz 22.40MB Kongsberg multibeam vendor format
0359_20141006_135638_Langseth.all.mb58.gz 22.03MB Kongsberg multibeam vendor format
0360_20141006_142630_Langseth.all.mb58.gz 22.02MB Kongsberg multibeam vendor format
0361_20141006_145631_Langseth.all.mb58.gz 71.97MB Kongsberg multibeam vendor format
0362_20141006_163601_Langseth.all.mb58.gz 1.51MB Kongsberg multibeam vendor format
9999.all.mb58.gz 0.90MB Kongsberg multibeam vendor format

Metadata Files: 2

Files File Size Description
MGL1408_Multibeam.xml NGDC created ISO metadata
em122_bag_info.tar.gz 164.0KB Additional cruise information

Water Column Sonar Data

Water Column Sonar Data Available: WCSD Map Viewer